GFSFLT2_250_spd_000.txt.gz
Wind_Speed
46 44 49 53 54 54 50 43 40 42 40 40 41 45 54 63 69 76 75 66 50 35 33 34 34 38 36 39 41 49 48 48
45 48 48 49 50 48 45 41 39 41 39 39 41 44 47 48 48 49 49 44 39 35 33 30 28 33 39 43 45 49 54 53
42 46 45 48 47 44 42 39 38 37 36 37 41 41 43 44 37 40 40 34 34 31 29 30 33 32 37 42 44 44 48 56
43 44 45 44 44 42 39 38 37 36 37 38 45 44 48 46 42 39 39 33 31 29 35 38 38 38 37 40 42 43 43 52
47 48 47 46 45 42 39 36 35 38 40 40 46 52 52 52 47 38 36 31 37 41 47 44 42 46 43 42 45 41 43 45
47 48 48 46 46 45 42 40 38 39 42 43 46 54 56 57 52 49 56 46 46 25 51 47 47 51 48 47 45 50 44 49
50 52 51 50 49 49 47 46 44 41 44 47 49 52 59 59 59 52 54 59 67 59 64 56 52 61 57 56 47 52 61 61
48 50 51 52 52 53 54 52 51 47 47 52 54 56 62 63 61 56 49 68 71 65 64 62 68 65 64 60 54 49 55 61
42 46 47 49 50 53 55 57 56 54 52 56 59 62 63 68 67 65 62 68 73 71 66 65 67 74 74 71 69 57 57 64
35 45 47 46 51 55 54 56 61 62 60 60 63 67 68 71 72 72 67 74 79 80 75 73 77 80 76 74 71 69 68 69
36 28 37 45 34 49 57 56 57 60 66 68 68 72 74 75 78 82 71 81 83 85 81 81 74 74 75 77 81 76 75 69
41 41 45 46 48 50 42 55 54 58 61 68 74 76 81 81 82 89 83 82 89 90 96 94 86 89 88 90 89 84 80 74
44 51 55 49 52 54 58 55 46 47 57 63 71 82 88 89 89 93 98 93 91 99 98 99 98 96 105 98 96 96 90 84
56 57 52 50 57 55 60 53 56 57 53 55 53 78 90 96 100 97 99 107 103 101 109 108 108 110 110 106 104 97 95 92
60 58 67 65 63 69 59 57 54 57 58 63 60 57 80 93 104 106 107 107 114 115 112 113 117 116 118 118 112 103 102 101
63 64 66 67 77 77 83 74 61 55 59 65 68 65 67 61 98 104 117 119 119 121 123 123 122 123 124 121 121 115 107 105
66 70 72 70 76 85 84 84 71 64 57 60 62 69 72 71 68 82 107 114 128 131 130 131 134 133 134 132 128 125 117 116
67 70 73 77 85 83 88 88 79 74 69 64 63 66 69 73 72 74 79 91 109 126 138 141 141 141 142 144 142 139 136 129
69 72 76 83 87 92 90 89 89 77 73 65 65 66 71 71 73 75 76 77 86 92 113 129 145 151 150 148 151 152 148 146
70 73 81 85 96 97 95 92 93 79 74 68 68 71 71 71 72 76 75 76 80 85 90 102 120 120 138 151 160 163 157 155

GFSFLT2_250_spd_003.txt.gz
Wind_Speed
63 63 62 58 55 49 48 50 53 49 48 48 45 48 53 59 73 77 75 77 63 62 53 68 64 62 54 55 48 47 48 52
56 54 52 50 45 44 48 52 46 45 48 48 52 54 53 61 71 94 87 83 71 70 60 68 67 60 50 39 36 43 45 46
45 43 42 41 43 46 46 43 44 47 50 49 49 51 53 56 69 87 103 96 89 85 78 63 62 56 49 42 38 34 41 48
40 39 39 39 40 43 43 45 45 46 46 46 48 49 48 53 62 81 96 112 110 101 96 80 66 57 50 42 43 34 37 41
40 39 40 41 42 45 46 48 48 48 48 47 45 46 48 51 59 69 82 92 99 102 94 86 68 56 49 49 45 46 41 35
40 43 44 45 47 48 49 48 48 49 49 49 47 46 50 52 60 64 69 74 78 73 70 67 63 52 55 49 48 53 49 47
39 41 43 45 47 48 50 51 51 52 52 53 51 49 51 56 60 64 64 67 69 68 68 69 60 59 60 53 53 53 58 49
36 35 37 41 45 47 49 51 54 55 57 58 58 55 53 58 61 67 67 70 73 72 71 68 65 66 63 63 66 58 58 59
19 20 24 32 36 38 43 46 47 51 56 60 63 62 58 60 66 71 72 75 75 76 75 75 76 70 70 65 68 67 62 61
31 26 35 30 23 25 31 36 32 40 51 54 60 67 66 64 69 72 79 78 83 82 79 81 83 84 84 80 83 81 75 74
40 42 40 41 38 39 36 29 39 41 38 43 57 63 70 73 72 75 81 86 87 87 89 83 86 87 90 90 90 89 83 79
38 40 42 43 43 48 47 45 39 40 42 50 52 60 70 75 81 82 83 88 91 93 90 87 87 88 94 93 91 92 93 88
38 38 40 39 40 43 48 52 56 56 52 53 51 48 55 61 77 90 90 92 97 97 99 97 93 91 96 102 94 93 96 89
43 41 42 43 43 44 51 55 58 62 64 62 60 51 58 72 72 84 96 99 101 102 106 105 98 96 101 105 99 100 98 93
57 54 55 56 60 59 56 61 64 66 73 73 72 65 59 63 59 67 85 98 105 111 111 115 112 106 102 112 112 110 109 106
61 64 65 65 66 70 72 67 68 71 77 81 87 77 62 61 64 67 69 85 99 115 119 121 122 121 117 114 115 119 118 111
67 70 73 76 74 77 78 78 78 80 82 90 92 86 70 62 65 66 73 74 82 98 123 125 130 130 131 128 120 122 127 127
73 75 82 82 84 84 82 84 83 84 87 91 93 93 77 68 64 67 69 75 80 83 101 115 135 136 137 141 139 129 131 135
73 75 80 83 83 85 84 87 87 88 91 94 94 90 79 72 65 66 69 71 76 77 83 95 110 125 148 149 148 150 146 141
76 77 77 84 87 88 89 91 92 93 95 95 96 92 80 73 69 66 67 68 72 76 79 84 88 106 119 139 158 154 154 154

GFSFLT2_250_spd_009.txt.gz
Wind_Speed
68 63 61 58 53 48 47 47 46 45 43 40 40 38 40 43 43 46 51 50 44 59 61 64 62 59 67 69 62 57 56 58
47 45 43 39 36 37 36 37 35 34 33 34 37 35 35 40 43 47 48 52 53 60 61 74 70 67 71 76 72 68 61 59
30 30 32 31 32 32 30 30 33 32 32 32 33 33 36 38 40 44 50 53 54 59 63 68 82 81 74 70 71 76 63 64
22 22 23 23 26 29 29 30 31 34 32 34 34 32 34 36 38 38 43 49 50 53 63 71 78 88 84 85 76 76 70 63
18 18 18 19 18 18 22 27 31 35 38 40 41 42 40 41 43 45 45 46 48 52 56 77 81 89 92 92 95 96 81 72
22 21 19 16 15 17 16 17 20 22 26 33 39 43 45 46 48 49 50 51 53 56 57 70 89 92 95 97 103 103 95 85
30 31 30 34 32 29 21 21 18 21 18 20 25 27 30 40 44 48 51 53 58 59 61 66 71 94 98 101 103 107 107 93
30 31 32 31 30 32 28 24 26 17 25 22 19 23 23 25 31 43 49 54 57 62 65 67 69 74 94 103 104 106 110 104
38 36 34 34 31 34 34 32 31 32 34 36 35 34 27 30 29 28 33 45 53 62 67 71 74 75 76 88 112 108 110 111
38 37 36 34 36 36 38 37 35 38 41 39 39 38 39 42 37 38 39 41 47 56 65 73 77 80 79 78 87 89 88 89
37 37 37 39 38 38 38 40 42 42 43 46 46 47 51 51 47 48 48 50 49 53 54 62 74 82 84 84 83 85 86 83
36 34 36 36 38 37 36 38 40 40 42 45 50 54 59 61 62 63 61 57 54 57 60 62 64 73 82 89 89 88 87 89
36 37 36 39 40 40 42 42 47 50 53 53 54 57 62 65 68 67 68 66 64 63 63 65 71 72 74 83 92 95 92 93
39 41 40 43 46 50 51 50 54 57 58 58 60 63 67 68 73 76 73 72 72 71 71 67 72 79 81 82 88 97 102 98
48 44 46 47 50 54 57 57 59 63 63 62 63 67 72 76 76 81 83 82 80 79 77 76 73 75 84 85 86 90 101 108
53 54 57 59 61 60 63 65 65 66 70 72 72 76 81 85 85 89 92 92 87 84 81 83 82 78 81 89 89 91 95 104
58 61 66 68 67 65 65 64 69 73 75 77 81 87 88 91 98 97 100 98 88 85 81 82 83 82 82 84 90 89 91 99
66 68 69 71 73 73 73 72 75 77 80 81 91 94 95 98 107 104 110 101 93 86 83 80 78 79 77 77 82 87 89 93
65 66 68 73 74 75 78 79 82 82 84 91 98 103 106 108 116 114 119 103 96 92 86 83 76 70 69 70 73 78 85 89
67 68 71 76 82 84 86 87 88 89 89 95 102 106 113 114 118 122 116 100 95 92 87 81 72 68 66 66 67 72 76 82

GFSFLT2_250_spd_012.txt.gz
Wind_Speed
52 53 57 53 50 50 46 40 35 35 35 34 34 36 36 36 37 38 40 44 46 54 54 51 51 55 66 58 49 44 50 47
44 44 39 34 34 32 28 28 28 25 27 26 26 27 27 30 31 35 38 42 47 48 50 54 52 58 68 63 62 56 58 62
32 29 26 25 23 22 20 22 22 23 26 26 27 28 28 28 28 32 35 39 41 48 51 51 54 54 63 65 72 65 60 64
14 18 20 17 16 15 16 18 20 22 25 28 29 32 34 33 33 33 36 39 41 46 50 50 57 67 68 70 74 77 73 70
24 28 28 30 27 28 27 27 23 23 26 25 25 27 30 33 35 37 39 40 42 45 49 51 54 60 74 78 81 82 80 80
29 28 28 29 29 23 20 21 21 22 21 24 24 28 32 32 32 32 38 43 47 49 51 53 56 59 66 75 83 86 87 89
24 25 24 22 22 21 20 19 18 16 17 20 18 17 22 27 29 32 34 35 40 45 52 58 59 62 64 65 81 88 93 95
23 22 21 20 20 23 22 22 22 20 23 22 27 26 24 23 25 25 28 33 37 41 44 51 57 64 68 69 70 86 94 97
27 25 25 24 24 23 22 23 25 27 27 27 30 32 34 36 38 37 39 37 33 34 40 46 52 57 64 70 76 75 88 94
27 25 27 27 27 28 27 28 32 33 33 35 38 40 40 40 41 41 43 47 48 49 49 45 48 55 62 63 72 81 83 92
30 29 29 31 31 32 34 36 38 37 39 40 41 41 41 39 43 45 47 50 52 54 56 56 55 51 54 61 69 74 83 90
32 32 31 34 34 36 40 44 45 44 45 46 46 49 49 47 48 50 52 57 59 60 62 64 63 60 59 58 63 68 77 84
35 38 37 36 39 41 44 45 44 44 44 44 45 49 52 51 51 52 57 62 64 66 71 72 74 71 75 66 66 68 72 79
42 41 39 38 40 44 44 46 48 51 53 55 56 57 58 58 60 60 65 71 73 75 79 81 81 80 79 75 71 72 74 78
48 47 44 43 48 50 51 55 60 63 64 65 66 64 66 68 70 73 74 74 79 82 86 89 90 88 88 82 76 74 78 83
56 56 57 54 60 61 60 62 68 69 68 69 71 70 72 74 74 77 79 83 83 87 92 93 93 95 91 85 79 76 79 82
61 66 68 67 68 71 70 71 72 73 76 77 80 81 83 85 87 88 89 92 93 96 98 99 99 98 94 89 84 82 80 82
67 70 69 72 73 73 75 78 77 79 81 84 88 89 92 95 98 99 99 101 102 105 104 104 102 95 91 85 82 84 85 82
68 69 70 71 73 76 79 81 84 85 88 92 97 97 98 101 103 105 109 110 113 113 112 110 99 91 87 82 78 77 80 82
71 72 74 75 79 81 84 89 94 98 99 102 104 107 106 108 110 113 117 121 121 118 113 101 93 89 86 79 73 70 71 72

GFSFLT2_250_spd_015.txt.gz
Wind_Speed
55 51 47 48 46 44 44 47 45 43 40 37 34 33 32 31 30 31 34 38 40 41 43 46 49 51 55 55 54 55 54 53
33 32 31 30 29 27 27 29 28 27 25 25 26 26 26 28 28 30 31 31 33 35 40 43 47 49 49 54 54 58 63 56
16 16 14 11 9 9 8 9 11 12 12 14 16 18 20 24 27 28 28 29 32 33 37 39 43 47 49 53 53 58 64 64
12 15 12 7 5 6 7 12 20 21 20 25 24 25 27 25 22 21 22 28 33 35 38 40 43 47 46 50 54 58 66 68
21 19 22 23 22 23 22 23 22 22 21 22 21 22 24 23 28 25 24 22 20 26 37 41 43 45 49 49 59 63 65 68
21 20 20 22 23 23 21 20 18 15 15 16 15 16 17 18 19 24 25 26 25 22 20 23 35 45 46 47 54 61 65 68
18 17 16 17 19 21 19 18 17 19 19 16 19 20 20 22 25 25 25 23 22 23 24 25 27 30 35 46 51 59 70 75
18 19 22 22 22 23 23 24 26 29 29 28 26 26 28 29 29 31 31 27 28 28 29 25 20 21 25 32 40 51 63 71
21 23 24 22 25 27 25 26 29 33 34 32 30 31 33 34 34 34 32 33 33 35 34 35 36 37 34 32 30 37 47 59
28 26 26 26 26 28 31 33 34 35 35 34 33 34 36 35 37 38 40 42 40 39 40 42 44 44 44 44 44 43 40 46
32 34 36 34 33 32 33 36 37 38 39 39 40 42 44 45 46 46 45 48 49 50 50 50 54 55 53 53 55 55 54 52
36 38 39 39 39 40 40 42 45 46 47 47 50 52 52 50 51 50 51 52 55 57 59 61 63 65 64 63 63 63 62 61
41 40 38 39 41 46 50 53 55 54 55 53 54 56 55 56 58 59 59 59 62 66 66 67 68 69 71 69 71 70 71 67
47 45 44 44 47 52 57 59 60 61 62 60 59 61 63 63 65 65 66 68 70 72 74 76 78 80 80 82 81 80 77 77
55 55 56 57 57 60 61 63 62 64 67 68 68 69 70 71 74 75 78 80 81 80 81 85 88 89 89 89 89 90 90 86
60 61 64 67 67 66 65 66 67 68 69 74 79 80 80 82 85 87 88 89 89 89 90 91 93 96 99 100 102 101 96 90
60 63 66 68 70 70 71 74 76 79 82 83 86 88 89 91 94 96 97 98 99 100 101 102 103 105 105 103 104 101 98 95
63 65 66 69 71 75 77 80 82 84 88 92 95 97 98 99 101 104 106 109 109 109 109 106 104 104 101 100 100 100 96 93
63 67 70 73 78 82 85 87 90 94 97 99 101 103 105 107 110 113 113 112 110 106 104 103 99 98 97 97 95 94 90 87
72 75 77 81 84 87 93 96 99 102 106 109 112 111 112 114 112 110 108 107 105 102 97 95 94 92 90 89 87 87 86 84

GFSFLT2_250_spd_018.txt.gz
Wind_Speed
62 55 54 50 45 40 37 36 31 30 30 30 29 29 30 30 30 29 28 27 29 30 31 35 37 37 38 41 46 47 46 46
42 40 35 30 25 22 20 21 21 18 16 17 15 13 12 14 17 21 25 27 28 29 30 32 32 33 34 37 41 44 48 48
16 12 11 9 8 8 7 10 13 6 7 11 9 8 12 10 10 12 11 13 20 25 28 30 32 32 33 33 34 42 47 48
6 10 9 12 14 14 13 14 17 18 20 19 18 20 21 22 21 22 19 15 13 10 14 23 28 31 32 35 35 39 42 44
13 15 17 18 17 15 14 14 16 19 21 20 22 21 23 23 24 28 25 26 24 20 18 14 12 17 28 31 33 35 41 43
23 25 27 25 24 23 22 20 21 24 26 28 27 26 28 27 27 28 29 27 26 24 24 22 23 21 17 20 28 35 39 44
22 25 26 24 26 28 27 24 25 27 30 31 30 31 30 32 32 33 31 31 30 28 25 24 23 23 23 21 21 24 30 40
20 21 21 23 25 26 29 29 28 28 28 29 29 28 30 30 33 35 34 34 36 34 34 33 30 27 27 27 28 26 26 28
20 22 26 30 29 28 28 28 29 30 32 33 34 34 34 35 37 39 39 40 39 38 39 39 39 37 38 37 35 36 37 35
21 23 27 31 30 31 30 33 36 37 40 44 43 43 44 45 45 42 42 42 43 44 43 43 45 45 48 48 50 49 47 45
29 33 36 40 41 40 40 43 46 48 49 50 48 48 49 51 50 52 52 51 52 52 52 53 54 54 54 56 56 54 53 52
44 46 45 46 48 48 49 50 51 54 55 54 55 54 56 57 57 57 59 60 61 63 64 63 63 63 64 66 65 65 64 64
47 48 48 49 51 52 54 57 58 59 60 60 62 63 65 65 66 68 69 69 70 71 71 72 74 75 75 77 76 75 74 73
49 49 51 54 55 57 56 57 58 61 65 66 66 68 68 69 71 74 77 79 81 81 81 81 82 84 83 84 83 83 83 83
52 54 57 58 59 59 62 64 64 66 70 73 76 78 79 80 82 84 87 90 91 93 93 92 93 93 94 94 92 92 94 94
55 58 60 63 65 67 67 69 72 76 78 80 83 85 88 92 95 97 98 100 100 98 99 98 98 100 100 104 105 101 100 99
58 60 62 66 70 73 75 76 80 83 87 89 92 94 96 97 102 104 106 108 107 108 107 105 104 103 103 103 102 103 103 98
63 67 69 73 79 82 83 85 87 89 90 93 96 97 101 105 108 107 107 107 107 108 104 99 93 93 95 95 93 95 98 99
65 69 75 79 81 83 85 88 93 97 98 99 103 105 108 112 112 113 106 107 105 101 95 90 88 85 85 85 84 87 90 90
72 77 79 81 82 84 90 97 101 103 107 110 112 114 115 113 110 107 104 102 98 96 90 86 79 75 75 76 78 78 82 82

GFSFLT2_250_spd_021.txt.gz
Wind_Speed
70 59 48 44 41 36 33 28 25 23 23 21 19 16 17 19 16 15 17 21 25 26 26 27 28 28 29 30 31 34 37 41
51 43 38 33 31 26 21 21 20 15 16 14 15 12 12 11 12 12 12 14 16 20 24 26 25 26 26 26 25 29 31 34
29 25 23 23 22 19 18 17 17 18 22 21 22 23 24 22 20 21 23 23 20 16 16 20 26 27 26 26 25 26 27 31
16 20 24 24 21 22 23 21 22 22 22 23 25 26 26 26 26 26 28 29 25 21 17 15 17 17 24 27 27 27 28 29
18 21 19 17 19 22 22 21 22 23 25 26 26 26 27 26 27 26 26 27 27 27 26 21 19 17 15 15 20 29 31 31
13 14 16 20 24 25 25 24 23 23 23 24 25 26 26 27 27 27 27 29 30 30 29 27 25 26 25 20 18 17 22 32
21 24 26 29 32 32 28 26 26 26 26 27 29 32 33 33 32 31 31 32 33 33 33 32 32 33 31 29 27 24 21 21
22 22 24 27 32 33 33 34 33 32 33 36 39 39 40 39 38 39 38 39 39 36 36 37 37 36 36 37 36 35 33 32
25 27 27 31 34 33 35 38 40 41 43 44 43 44 46 46 46 45 44 43 44 45 45 44 43 43 42 42 42 42 44 43
22 26 33 35 36 39 40 42 45 47 48 49 49 49 48 50 51 51 52 54 54 55 54 54 53 52 53 53 52 50 49 48
37 37 38 41 43 41 44 46 48 50 49 49 49 50 51 53 55 56 57 58 59 60 61 61 62 62 62 62 62 62 60 59
44 43 43 43 44 44 47 48 50 50 52 55 57 58 58 58 60 62 63 64 66 66 67 69 71 72 72 71 70 70 70 70
46 47 48 48 47 48 50 51 55 57 58 62 63 63 64 64 65 68 69 70 71 73 74 76 77 80 80 82 83 82 80 80
46 47 48 49 52 55 57 60 62 64 65 64 66 67 71 72 75 78 81 81 83 86 87 87 86 88 86 87 87 89 90 90
47 50 53 56 59 61 63 66 67 67 68 69 72 73 76 79 83 86 88 90 90 93 96 95 95 95 94 92 93 91 93 92
56 57 59 61 64 67 70 71 71 73 74 75 79 83 86 89 92 94 96 99 100 101 102 102 102 102 99 100 95 93 92 94
58 60 63 67 70 74 74 75 77 77 79 84 90 92 92 96 100 101 101 105 105 102 102 102 102 101 99 96 94 94 95 94
59 64 67 71 73 77 80 82 82 83 88 92 93 96 99 103 106 107 107 111 105 100 99 99 99 99 98 93 90 90 87 88
64 69 73 76 79 81 83 85 88 91 97 99 102 105 108 111 112 113 116 116 108 101 99 97 98 97 92 87 86 85 83 83
70 72 75 78 81 83 87 92 96 101 106 111 115 117 117 119 119 119 118 112 103 98 95 95 92 90 88 84 80 76 75 76

GFSFLT2_250_spd_024.txt.gz
Wind_Speed
80 68 53 45 26 24 21 21 22 22 21 20 17 18 22 18 20 20 22 21 22 24 24 25 28 30 29 28 24 22 28 31
53 39 23 21 17 17 18 19 18 19 18 19 20 22 22 21 20 20 18 18 17 16 15 16 22 22 25 28 27 25 25 26
22 16 13 13 13 18 20 20 21 19 18 19 19 21 21 22 22 21 21 20 22 21 20 20 17 16 17 20 23 27 26 25
9 9 12 14 18 20 19 18 18 20 21 22 20 20 21 23 25 26 26 25 23 22 21 22 23 23 19 18 20 20 26 29
7 8 9 12 16 18 20 22 23 23 23 23 24 25 26 30 32 32 32 32 31 32 31 30 28 25 24 23 22 22 20 24
7 9 12 15 20 25 29 28 27 28 29 30 31 35 35 34 34 35 35 36 36 36 36 36 34 33 30 30 31 29 26 23
16 17 19 20 24 29 32 34 34 34 35 35 36 37 38 39 40 39 38 38 39 40 40 40 41 41 39 36 33 34 35 32
22 29 29 32 34 36 37 39 39 38 38 40 41 41 41 40 40 40 40 40 40 40 42 44 45 45 45 44 43 41 39 38
31 34 31 36 38 39 38 40 40 41 41 42 43 43 42 43 46 48 50 52 52 52 52 52 51 51 51 50 50 49 47 47
33 32 33 37 39 40 40 41 42 43 45 47 48 46 49 52 53 54 54 54 56 57 58 58 58 59 59 58 58 58 58 57
33 36 41 43 44 44 44 43 43 47 50 50 52 55 55 57 59 60 61 61 62 62 62 62 63 65 65 66 67 68 67 67
37 40 42 41 40 42 45 48 50 52 53 56 58 60 63 65 66 67 67 66 66 66 69 71 72 73 73 73 75 75 74 75
42 43 42 41 44 47 49 52 54 56 59 62 65 68 68 69 69 67 68 71 76 79 79 79 79 82 83 82 80 80 87 86
46 42 44 48 51 53 54 56 60 64 66 68 70 71 73 75 75 76 79 83 84 85 88 91 92 93 91 93 86 86 87 90
43 48 51 54 55 57 61 64 68 70 72 73 75 76 76 77 80 83 87 92 93 94 99 104 104 104 102 99 96 91 94 90
50 52 53 56 59 62 66 67 70 74 76 79 81 85 88 90 93 96 98 98 99 100 105 108 107 105 109 106 102 101 97 95
50 54 57 60 63 66 69 70 73 77 81 83 81 81 83 96 99 104 107 108 108 110 111 107 106 103 104 105 104 97 101 98
56 59 62 65 67 71 74 77 79 82 84 84 88 94 99 106 108 113 122 123 116 113 109 106 105 101 100 101 101 99 94 97
62 66 68 72 75 78 79 81 84 86 89 94 97 101 107 114 118 121 130 127 118 113 110 107 102 100 99 100 101 99 95 92
66 70 74 77 79 79 84 89 92 96 98 102 107 112 115 122 123 127 133 123 115 108 103 100 96 92 90 91 92 92 90 87

GFSFLT2_250_spd_027.txt.gz
Wind_Speed
90 87 82 77 67 47 27 19 17 17 17 18 18 20 20 18 20 20 22 21 20 22 24 24 26 29 30 30 27 24 23 22
77 73 60 46 24 17 14 14 17 20 20 20 19 20 21 20 20 22 24 25 24 22 22 22 23 24 26 28 27 27 26 25
56 48 33 17 14 15 15 17 18 21 22 21 21 21 21 23 24 25 25 24 23 24 24 24 24 26 26 25 24 26 26 25
26 20 14 15 16 17 19 20 22 23 24 24 24 25 26 27 28 28 28 28 28 27 27 28 28 27 28 27 27 26 26 27
17 13 14 16 18 20 24 27 27 27 28 28 28 28 30 31 33 34 33 33 31 31 30 29 27 27 28 30 31 31 30 30
18 16 18 23 23 25 29 32 31 31 32 32 33 34 35 35 37 37 36 35 36 36 36 36 36 36 35 35 34 34 35 35
20 23 27 29 31 32 34 36 36 36 36 37 38 38 39 41 42 41 40 42 43 43 44 46 45 44 43 42 41 39 37 38
27 32 35 36 33 33 37 40 39 37 39 40 41 41 42 44 45 47 49 49 50 51 52 52 51 50 49 50 50 49 48 45
32 34 30 32 34 37 41 42 41 42 41 40 43 45 46 47 49 51 53 55 57 58 59 57 57 58 58 57 57 56 54 52
33 34 37 39 39 41 42 39 39 41 44 46 47 49 50 51 54 56 58 59 61 62 62 62 62 62 60 61 63 66 63 64
33 35 39 42 43 45 44 42 46 47 48 48 51 52 56 58 60 62 63 64 65 64 64 64 64 67 68 67 69 69 72 70
37 40 44 45 44 44 44 48 50 50 51 53 56 58 60 60 62 64 68 69 70 70 70 70 73 74 76 80 82 83 80 78
45 43 41 38 42 47 49 50 52 56 57 59 63 65 66 68 69 70 73 74 71 70 73 77 79 85 85 85 88 87 87 91
40 41 45 48 49 51 53 56 60 62 66 69 70 71 73 74 73 74 75 76 75 85 83 87 90 95 97 98 96 94 96 94
46 47 50 51 53 55 58 63 67 70 72 74 76 76 77 78 82 83 84 85 85 88 92 96 98 101 109 110 105 105 107 104
50 51 51 54 57 61 65 69 71 73 75 78 79 79 83 84 86 89 92 94 96 96 98 102 108 108 114 116 115 115 113 109
53 52 55 59 64 67 70 71 73 75 77 78 82 86 90 95 98 101 101 103 105 107 109 114 119 120 119 118 119 116 114 108
54 57 60 64 69 71 72 75 76 78 82 86 90 94 97 99 100 104 107 109 113 117 121 123 126 123 122 119 116 108 104 101
60 63 66 67 69 71 75 79 82 87 91 94 97 101 104 107 110 112 116 120 125 128 129 130 126 122 116 109 103 100 97 96
65 68 69 72 74 80 84 89 93 96 98 102 106 108 111 115 118 120 125 131 134 135 134 131 127 117 108 101 99 98 97 95

GFSFLT2_250_spd_030.txt.gz
Wind_Speed
110 105 95 88 84 77 62 52 38 24 20 17 16 16 16 18 21 24 25 25 25 24 24 24 25 25 28 29 29 29 28 24
97 87 77 77 60 52 41 26 23 19 18 19 19 19 21 22 25 26 25 25 25 25 24 24 24 25 25 27 29 30 30 30
82 77 67 52 41 28 22 23 22 20 19 22 24 25 26 28 27 28 28 28 28 28 26 25 25 25 26 27 26 28 29 30
68 64 38 32 28 24 23 25 25 24 27 28 28 29 29 30 31 30 30 30 31 30 29 28 28 27 29 28 27 27 27 27
48 37 30 25 25 28 29 31 29 32 32 35 35 34 34 33 36 34 34 35 32 34 35 36 34 35 35 38 38 36 34 32
27 24 26 29 32 34 36 38 37 36 41 41 39 38 38 39 39 37 39 39 40 39 39 41 43 43 44 45 43 42 41 39
25 28 31 34 39 41 41 41 40 40 41 42 43 44 44 41 42 42 43 44 45 45 45 46 47 49 49 48 46 45 44 44
27 32 36 39 40 37 37 39 39 42 42 42 42 43 43 45 46 46 47 47 48 50 50 51 51 52 53 52 52 51 48 46
34 35 40 41 41 41 43 44 43 44 43 41 44 48 48 49 48 50 52 55 56 54 54 54 54 56 57 56 55 56 54 52
36 38 38 43 39 43 44 45 46 43 42 44 50 52 50 55 56 58 59 58 58 60 60 59 61 62 63 62 61 60 59 60
35 38 41 46 44 47 42 43 44 47 50 50 53 56 59 61 62 62 62 63 64 65 65 63 64 66 66 67 62 60 65 64
41 41 42 41 39 43 47 49 51 51 53 54 59 61 63 64 65 67 68 67 66 67 69 71 74 75 74 72 71 76 74 74
45 44 45 45 49 49 51 52 52 55 58 58 63 63 65 65 65 67 69 70 72 75 76 77 80 86 87 86 82 83 84 84
45 46 48 52 53 53 55 57 61 63 64 63 66 66 68 71 72 75 76 78 82 84 85 86 87 91 91 92 91 90 95 95
48 50 53 56 56 57 60 62 64 67 70 71 68 70 75 79 80 84 87 89 91 93 94 97 96 96 101 103 100 97 97 101
52 54 56 59 63 64 63 64 69 72 74 76 77 84 87 90 92 94 95 98 99 101 104 107 110 107 108 110 113 115 114 111
56 58 59 60 67 68 69 72 75 77 79 83 87 90 93 97 100 102 104 108 110 109 113 115 117 117 118 120 121 123 125 122
60 62 66 67 67 71 74 77 79 82 85 89 92 96 100 104 108 111 114 117 119 121 124 125 125 127 128 127 122 120 117 111
65 68 70 71 74 76 78 81 84 88 93 96 100 104 108 111 115 118 121 124 127 129 130 133 132 129 127 123 115 110 104 102
65 70 74 77 79 81 84 87 91 96 100 105 109 113 117 119 123 125 126 129 130 132 132 129 127 123 116 111 108 103 99 98

GFSFLT2_250_spd_033.txt.gz
Wind_Speed
100 100 98 99 101 85 81 77 65 54 38 32 28 25 21 24 24 26 27 27 27 27 27 25 24 21 21 21 21 21 19 21
97 100 100 98 81 74 69 56 43 34 31 29 25 27 26 27 28 29 29 29 30 28 28 27 26 25 25 24 23 23 20 22
98 102 86 75 63 60 48 39 34 32 32 34 30 32 29 30 32 33 33 33 33 31 31 30 29 29 29 27 26 28 28 28
97 84 78 61 53 41 39 36 35 36 35 40 40 41 39 39 38 37 36 38 37 35 34 33 34 34 33 33 33 34 34 31
78 59 52 43 39 36 37 38 39 45 46 45 47 47 45 45 45 45 43 41 39 40 40 38 38 37 37 39 39 38 39 37
63 51 41 40 36 37 41 43 46 51 48 44 43 46 46 45 46 44 43 43 44 45 45 45 45 46 46 43 43 43 42 40
45 38 37 39 40 43 45 47 46 42 44 48 48 49 48 44 42 43 46 48 47 47 48 50 50 50 50 50 49 45 46 45
40 37 38 38 45 45 45 45 42 42 46 48 50 51 45 43 47 49 48 49 52 53 54 55 53 51 51 50 51 53 53 50
34 37 40 42 44 46 46 49 46 46 48 47 44 47 49 49 49 50 53 55 58 58 58 58 58 57 55 52 53 54 55 56
33 33 29 42 41 51 52 45 43 44 44 46 50 52 53 54 56 57 58 61 61 60 60 61 61 61 59 58 59 61 62 63
28 26 28 30 34 53 48 46 53 52 50 50 51 53 57 61 63 63 66 66 63 63 65 66 66 66 65 65 66 66 67 68
27 28 33 34 41 50 54 54 57 58 57 58 58 59 62 65 67 67 69 66 64 72 74 74 76 76 76 75 75 76 78 77
35 38 41 47 51 54 56 58 59 61 62 62 62 64 65 67 70 70 71 72 76 78 79 81 83 88 87 87 85 86 86 88
43 47 51 52 55 56 59 63 64 63 64 63 66 68 70 71 73 75 77 79 82 87 90 90 92 97 98 97 94 95 97 97
47 52 54 56 56 61 65 65 66 68 71 72 73 73 74 76 78 81 84 87 91 95 98 101 102 105 110 110 106 103 103 104
50 53 57 59 60 63 65 67 71 73 75 77 78 81 83 85 88 92 94 97 101 106 108 111 113 113 116 119 120 119 115 108
55 57 55 56 64 67 69 73 76 77 78 80 83 87 91 94 98 103 107 110 113 116 116 119 119 118 120 120 119 119 119 114
59 59 61 62 61 65 72 77 81 82 84 86 90 94 97 103 107 111 116 121 124 125 125 124 119 118 114 111 108 106 102 102
58 63 66 67 70 74 77 79 82 85 88 91 96 101 105 110 114 119 128 130 130 131 132 129 126 121 114 112 110 106 101 95
59 64 66 70 74 79 84 87 91 93 96 100 104 109 112 118 125 130 134 133 133 132 128 123 117 112 111 108 105 101 97 94

GFSFLT2_250_spd_036.txt.gz
Wind_Speed
94 97 98 99 96 97 98 96 89 78 63 53 45 38 34 34 34 34 34 35 34 34 34 34 32 31 31 29 28 26 27 24
97 96 89 94 95 98 89 78 65 60 51 45 41 36 38 36 37 34 35 38 38 38 39 39 35 34 34 33 32 29 27 29
91 94 94 96 93 81 71 59 51 45 44 42 44 43 45 44 48 45 46 46 44 41 42 41 38 38 38 37 36 35 32 33
94 92 93 84 74 65 56 49 46 42 43 45 48 50 53 50 47 44 43 45 46 45 44 43 41 41 41 41 39 39 39 38
93 89 79 65 60 53 52 45 42 44 47 50 52 51 49 46 47 46 47 45 43 42 42 44 44 42 42 44 45 45 44 43
74 72 62 58 49 50 46 43 45 50 56 55 52 47 49 49 49 49 48 47 44 45 46 46 46 48 48 49 50 48 48 46
57 58 48 49 46 43 42 45 47 47 50 52 51 51 49 49 49 45 44 47 49 48 48 51 53 54 55 57 56 53 49 47
62 48 46 46 44 42 42 37 41 42 46 49 47 46 46 46 47 49 50 49 50 52 54 56 57 57 57 54 54 55 53 52
49 49 45 37 42 40 43 42 45 41 46 46 50 56 53 52 52 53 55 55 57 58 59 58 59 61 59 55 54 57 57 57
43 47 38 37 43 42 48 49 47 50 51 52 57 58 60 60 58 58 59 61 63 64 65 66 65 63 62 61 66 66 66 66
41 41 41 38 42 46 49 53 51 55 56 55 58 59 63 63 63 63 64 66 67 67 68 67 68 69 68 69 71 71 72 72
39 33 31 33 40 48 52 56 58 61 60 61 62 62 62 63 66 67 69 70 71 72 73 73 74 74 74 75 77 80 82 84
32 35 36 41 49 53 58 62 62 63 61 61 63 64 65 67 70 72 73 74 74 77 80 82 83 81 81 82 86 89 92 94
38 39 43 47 52 57 61 65 66 63 62 66 66 68 71 74 77 80 81 80 83 84 86 88 90 92 94 94 93 95 101 103
46 47 49 53 56 59 64 68 67 67 68 70 74 77 81 83 84 84 85 86 89 91 93 97 101 104 105 107 108 108 109 111
48 51 54 56 60 64 66 66 68 71 73 77 79 84 87 91 93 94 95 97 99 102 105 110 112 114 117 120 122 122 122 110
49 53 56 61 65 66 66 68 72 75 78 84 89 94 97 100 102 104 106 109 110 115 118 122 124 125 126 125 127 127 122 117
53 53 56 60 62 65 68 69 74 77 82 88 93 96 101 104 107 110 113 117 121 124 127 127 128 128 127 125 122 118 116 110
55 56 58 61 65 68 69 72 76 81 86 91 96 101 105 108 112 116 122 127 129 130 127 123 124 124 124 122 120 119 116 107
56 58 63 67 69 72 74 77 82 89 95 101 104 106 110 114 118 123 129 131 128 126 126 126 124 121 120 120 118 113 105 99

GFSFLT2_250_spd_039.txt.gz
Wind_Speed
87 88 93 87 90 94 94 98 103 104 102 94 75 61 58 52 44 42 39 41 46 47 46 45 44 42 41 38 36 36 38 36
86 84 87 87 92 96 99 101 99 91 78 69 58 54 50 49 47 44 46 49 50 49 48 47 46 44 44 42 41 40 40 39
84 89 87 93 96 96 97 94 90 73 63 58 56 54 50 50 49 50 50 46 45 45 46 45 44 44 42 41 41 40 39 40
84 88 93 93 93 90 89 83 67 59 55 51 52 51 52 51 48 49 48 46 47 46 47 47 43 41 42 44 45 43 44 46
84 86 85 89 92 88 81 71 62 56 51 51 54 54 52 46 45 45 45 47 47 46 44 43 44 46 47 47 48 50 50 51
86 85 92 91 85 84 68 59 57 52 51 51 53 50 46 44 41 40 42 46 45 46 48 48 48 47 50 52 52 53 53 54
84 89 88 86 82 68 61 56 54 57 55 53 47 50 48 49 45 47 53 52 53 51 51 52 52 54 55 57 58 57 57 57
84 81 73 60 60 54 57 55 54 54 55 50 52 50 51 55 56 53 53 54 53 52 53 54 55 57 61 62 62 61 61 59
72 68 64 57 54 55 55 56 54 54 54 52 54 56 57 59 57 56 56 57 56 57 56 55 57 59 62 65 66 66 66 64
62 61 54 52 47 51 56 57 59 56 54 53 56 59 64 63 60 59 60 60 62 62 60 61 63 65 66 68 68 69 70 70
47 44 46 35 42 53 62 65 58 55 52 56 62 65 67 67 66 65 66 66 65 65 67 68 70 72 73 73 73 73 74 75
43 38 39 41 54 57 61 56 58 55 59 65 67 68 69 70 69 69 69 70 71 73 74 76 76 76 76 76 78 82 83 84
31 37 43 47 54 59 57 61 64 66 67 68 70 71 73 73 71 74 74 75 77 79 81 83 85 87 85 84 85 87 88 90
50 52 56 58 60 62 63 64 67 69 72 73 74 76 74 74 76 77 79 81 85 88 90 91 93 94 94 93 91 93 97 100
54 54 57 58 58 60 65 68 70 71 73 74 75 76 78 79 82 83 85 88 91 95 98 101 103 103 102 103 102 102 104 108
55 55 54 55 57 61 64 65 66 67 70 73 76 79 82 85 87 89 91 96 100 103 108 112 112 112 113 116 117 116 114 107
46 50 52 56 58 60 63 66 69 72 75 80 83 86 89 91 94 97 102 106 110 115 118 119 120 122 124 124 124 123 121 118
44 50 54 57 60 63 66 69 72 76 80 83 85 89 92 95 100 105 109 114 117 121 124 126 127 126 124 125 124 123 121 121
50 55 58 62 65 67 69 72 76 78 80 83 88 93 96 101 106 110 115 120 122 125 128 129 128 125 124 123 124 126 125 122
58 60 62 64 66 69 72 75 77 80 85 90 94 99 103 107 112 117 120 121 122 122 123 122 122 123 122 122 124 122 116 110

GFSFLT2_250_spd_042.txt.gz
Wind_Speed
84 84 86 87 89 82 84 88 90 92 97 95 97 94 92 81 74 63 56 50 50 48 46 47 44 40 38 39 38 38 37 34
86 86 86 90 82 84 86 88 89 94 93 94 95 88 77 70 60 57 52 51 45 43 42 42 43 42 40 38 36 36 35 35
83 83 82 81 83 87 89 87 91 88 91 87 84 69 65 63 57 51 51 47 46 43 42 43 43 43 40 38 36 36 37 38
82 82 80 83 86 86 89 90 91 86 77 71 72 62 64 59 57 53 47 43 39 36 40 44 44 44 45 44 42 42 41 42
85 80 82 81 85 86 92 89 82 70 65 63 61 62 63 61 57 56 47 47 43 43 48 48 47 45 45 45 45 45 46 48
78 82 82 83 88 91 88 76 67 62 60 61 60 63 61 61 55 52 50 51 50 51 52 50 51 49 49 49 49 49 49 52
80 81 85 84 85 78 70 62 60 60 63 64 61 61 59 59 54 50 51 52 55 58 55 53 55 55 54 55 54 53 53 55
80 85 85 84 74 74 63 62 59 60 62 62 61 61 60 63 59 55 55 56 60 62 60 57 57 58 58 58 58 59 60 60
83 88 80 69 62 58 56 58 62 64 63 63 64 61 60 62 59 58 60 63 65 65 64 62 62 63 61 62 62 63 64 63
79 74 62 57 52 51 54 52 58 65 70 65 64 65 62 58 60 63 67 69 68 68 69 67 67 68 67 68 69 69 70 70
63 47 38 44 45 44 45 55 60 67 68 69 71 67 65 64 69 73 73 73 73 73 74 71 73 73 73 74 75 77 77 78
49 38 37 32 43 42 55 65 70 70 72 72 74 73 75 75 74 75 77 77 78 79 78 79 80 80 79 79 81 83 84 85
43 30 39 44 64 58 57 64 67 72 76 78 76 75 76 76 77 77 77 79 81 80 83 85 86 85 85 86 89 90 93 95
43 44 48 54 57 60 65 70 72 74 74 73 74 75 76 77 78 79 80 81 83 86 88 89 91 93 94 95 95 99 102 104
55 57 59 60 63 65 68 72 74 74 72 72 73 75 77 79 81 82 84 87 87 89 92 95 95 98 99 101 99 100 103 108
54 56 58 60 62 63 66 68 67 67 69 71 74 78 82 83 85 85 86 89 93 97 100 102 103 104 106 107 109 109 109 109
46 47 48 51 55 59 62 65 68 71 74 76 77 79 82 85 85 87 92 96 100 104 108 111 112 114 116 119 121 122 121 120
49 51 54 56 58 61 64 67 70 72 74 76 77 80 81 85 90 95 100 105 108 112 115 120 121 123 125 125 123 123 123 124
55 57 59 61 61 62 65 68 70 72 74 76 79 84 89 94 98 103 107 112 115 118 120 122 123 124 124 124 121 121 122 121
56 58 60 62 62 64 67 69 71 74 77 80 83 89 95 100 105 109 112 115 119 121 122 120 119 120 122 119 117 118 117 111

GFSFLT2_250_spd_045.txt.gz
Wind_Speed
83 81 86 86 86 90 89 87 86 88 94 89 90 95 87 86 88 86 75 71 65 58 50 43 37 34 32 34 34 32 30 31
80 83 82 83 85 87 88 87 87 87 83 89 82 83 86 89 82 75 69 66 58 55 47 38 31 30 35 36 36 35 33 33
76 79 84 81 83 85 86 82 85 82 87 85 87 85 84 73 73 69 61 59 56 49 41 40 38 38 40 40 38 38 36 35
79 79 82 74 73 71 81 80 78 82 86 81 79 76 71 75 67 63 61 57 55 48 42 42 44 41 42 44 41 41 41 41
81 78 74 79 83 79 79 82 84 79 81 72 63 69 69 66 63 62 61 59 54 48 46 44 44 46 45 47 47 45 44 45
67 66 78 75 73 76 79 82 79 80 69 63 69 68 64 63 61 60 60 58 54 51 50 49 51 52 53 53 53 51 47 46
65 70 77 76 81 80 76 73 75 67 67 65 65 65 64 58 58 55 58 57 57 53 52 53 56 60 63 63 60 58 56 54
70 75 79 82 85 78 72 71 67 61 59 61 62 61 61 64 60 59 57 59 57 55 56 59 64 69 70 68 66 65 61 60
72 78 74 78 75 70 63 59 57 57 64 66 63 60 64 68 69 71 69 70 68 65 67 68 71 71 70 71 70 72 70 67
68 72 72 69 59 55 48 51 59 59 62 60 55 63 68 72 76 77 78 80 77 74 74 72 72 73 73 74 75 75 74 73
63 58 54 48 43 43 44 45 46 53 55 58 56 67 74 79 77 82 83 82 80 79 78 77 76 77 77 78 78 78 79 81
58 49 43 36 38 41 50 53 54 60 59 65 69 76 81 84 87 85 87 86 84 81 80 79 79 80 81 82 84 85 87 87
45 43 28 29 52 57 62 61 65 66 73 73 78 81 84 87 87 88 86 81 79 80 82 83 85 85 86 88 90 89 91 93
47 48 40 44 54 61 63 64 63 70 75 80 83 84 84 82 79 79 81 82 83 83 85 87 89 90 90 89 89 91 94 97
43 42 44 48 52 54 55 57 61 64 68 71 74 75 76 79 81 81 82 83 85 86 87 87 87 90 94 98 100 103 105 109
41 42 44 46 51 54 57 60 63 67 69 72 73 75 77 78 79 80 82 83 84 85 89 93 97 101 105 109 113 114 117 115
44 46 49 51 54 56 59 60 61 63 65 68 70 72 74 76 79 80 81 83 87 93 99 104 107 110 111 114 117 120 124 127
48 51 53 56 59 60 62 63 64 65 68 70 71 72 74 75 76 80 86 92 97 103 107 108 111 113 117 119 119 121 124 128
52 54 56 58 60 61 62 63 65 67 68 67 68 71 75 79 84 90 96 101 105 105 106 107 111 116 119 119 120 122 123 122
57 58 59 61 62 63 64 65 66 67 66 68 72 77 82 88 94 99 103 107 107 109 109 114 114 116 116 116 118 117 116 114

GFSFLT2_250_spd_048.txt.gz
Wind_Speed
72 72 78 85 78 81 77 80 79 84 85 87 83 78 80 75 73 79 82 75 74 63 56 53 51 41 36 32 30 31 32 34
79 81 77 75 77 76 74 75 78 88 85 86 77 75 74 80 80 74 75 70 64 58 51 49 48 41 35 36 38 39 36 36
77 72 70 66 67 71 74 78 81 75 72 75 76 77 77 75 74 75 72 68 60 54 48 47 47 40 37 37 38 38 39 38
67 60 63 66 72 75 75 75 70 71 73 80 78 76 79 74 73 66 67 66 52 47 46 45 42 42 40 39 38 38 39 40
59 63 65 68 65 65 65 67 67 78 81 80 80 80 70 69 59 58 62 60 49 47 45 47 45 44 43 43 43 42 43 43
60 62 61 65 69 66 70 73 79 81 80 78 77 77 72 70 62 59 63 55 52 51 49 51 49 49 50 48 49 52 50 50
68 68 67 66 68 73 75 76 80 82 81 80 79 73 66 65 67 69 59 61 59 56 59 56 58 59 58 59 61 59 59 59
69 61 62 67 68 70 74 77 78 80 74 71 66 64 64 66 71 69 65 68 67 69 72 70 69 69 67 65 67 66 64 64
57 62 68 70 69 73 74 76 72 64 61 62 61 65 65 70 69 73 71 70 74 77 80 84 84 78 73 70 73 71 68 67
63 64 65 70 71 68 62 54 50 56 56 58 59 58 64 67 67 68 69 71 77 85 89 91 91 85 80 76 73 72 70 71
65 68 66 65 63 61 55 46 48 59 62 57 65 62 64 73 74 76 80 84 87 89 94 96 91 83 80 79 80 80 79 78
63 63 63 60 49 32 38 50 50 56 61 60 67 73 78 82 84 88 90 91 95 94 96 85 85 86 86 84 84 82 82 81
54 49 47 43 41 39 51 58 62 63 69 74 78 80 85 82 84 92 93 90 85 86 88 89 90 89 87 84 83 82 81 83
47 47 45 41 40 40 50 54 63 72 70 73 75 75 77 77 78 80 81 82 83 84 84 86 87 85 84 84 84 86 88 87
39 37 38 40 41 44 47 52 56 60 64 67 70 73 75 76 77 79 80 82 82 84 84 84 84 86 88 91 95 99 102 105
36 40 43 46 48 51 54 57 60 64 66 69 70 73 75 76 78 79 79 79 81 82 83 87 90 94 99 103 105 109 111 112
41 44 48 50 53 56 58 61 63 65 67 69 71 73 75 75 75 73 74 77 82 87 91 95 99 102 106 109 111 113 117 118
45 48 51 54 57 60 62 64 66 67 68 69 69 69 69 69 72 75 79 83 87 92 96 101 103 106 109 112 115 117 120 122
44 47 51 54 57 59 61 62 64 64 66 65 64 63 66 71 76 81 86 91 95 99 99 103 105 108 111 114 116 117 117 117
48 53 57 58 58 59 60 61 62 63 63 61 63 67 70 80 84 86 95 95 97 100 102 104 106 109 112 114 113 113 112 110

GFSFLT2_250_spd_051.txt.gz
Wind_Speed
82 82 76 74 72 65 75 76 79 71 77 69 75 80 84 83 72 70 71 73 73 70 72 72 61 54 51 45 42 41 40 38
62 58 61 62 64 66 66 61 71 72 71 76 75 75 74 66 74 74 76 75 75 70 71 66 53 48 45 42 38 39 41 41
63 72 76 75 73 72 68 66 64 68 72 76 70 69 71 76 81 78 77 73 71 70 67 57 48 43 40 38 38 38 41 44
68 73 76 77 70 67 66 62 63 72 72 73 74 78 76 82 78 75 68 68 66 60 55 55 48 43 41 43 41 38 38 39
74 74 72 73 62 63 64 64 65 69 74 80 80 80 76 71 62 61 60 67 64 64 58 56 54 52 48 43 40 40 43 43
71 70 59 58 58 54 61 66 71 72 74 79 82 66 47 51 54 60 63 68 64 60 57 55 58 55 52 51 46 42 43 45
62 63 63 63 65 65 64 69 73 73 77 72 65 57 57 54 56 68 71 67 67 65 66 68 60 59 66 64 70 65 60 58
63 66 70 72 71 73 72 73 70 74 77 76 70 69 67 66 70 70 74 72 72 71 75 68 64 62 76 75 83 84 75 69
62 65 61 60 64 64 66 67 70 73 69 66 60 67 67 70 72 72 74 75 71 69 68 67 67 83 89 87 89 88 84 78
52 52 56 62 66 67 67 70 62 56 57 61 61 63 65 68 69 73 74 69 65 66 70 77 89 96 99 97 95 95 86 77
51 53 57 59 61 67 69 70 65 57 62 60 55 56 63 67 67 67 75 79 79 85 88 94 90 88 85 83 83 83 82 78
60 61 64 66 72 70 65 61 58 58 62 61 66 66 70 74 77 81 84 88 93 96 98 94 88 85 84 85 85 85 83 83
63 65 67 63 58 55 53 53 54 59 62 64 68 76 82 84 83 85 91 85 87 90 88 87 87 87 86 83 84 84 84 79
60 56 53 51 49 45 44 45 49 53 55 59 66 75 76 76 77 77 80 82 80 82 85 86 85 81 79 78 79 83 89 90
47 45 41 39 41 44 46 50 53 57 60 63 67 70 73 76 78 80 81 82 82 78 73 73 78 81 85 88 90 93 96 102
35 36 38 41 44 47 51 55 58 62 65 68 70 74 75 77 77 77 76 73 70 70 75 81 84 88 91 98 103 106 108 107
35 38 42 44 48 51 55 59 63 65 68 69 70 71 71 72 71 68 64 68 73 78 82 89 93 98 102 104 106 108 111 112
38 40 43 46 50 54 57 60 61 63 65 66 67 66 66 65 64 66 69 74 80 84 90 97 100 103 107 108 108 107 108 111
40 42 44 48 51 54 56 58 59 59 61 63 63 64 64 64 68 70 76 79 85 92 98 100 102 104 103 103 105 109 112 113
39 41 44 46 50 53 56 57 59 62 63 63 65 68 70 71 73 77 81 86 92 99 103 103 102 101 103 106 108 112 112 110

GFSFLT2_250_spd_054.txt.gz
Wind_Speed
65 46 52 56 67 67 68 63 68 66 67 66 71 71 74 79 76 81 75 75 70 70 72 70 64 63 62 65 64 59 51 46
57 59 65 69 71 66 58 63 56 66 68 65 71 73 75 78 76 78 83 74 71 75 70 62 65 62 60 63 57 52 43 39
59 60 68 55 61 59 57 59 67 71 68 75 76 78 84 78 80 80 75 72 80 75 65 63 59 66 62 56 50 46 43 41
69 60 58 65 64 62 66 69 71 74 73 73 79 83 76 81 79 74 79 79 74 68 66 65 66 66 57 54 50 49 44 44
70 71 75 76 69 66 69 75 77 72 73 78 77 78 79 82 75 74 66 63 64 67 71 71 59 61 59 52 45 44 49 42
58 60 66 70 75 79 77 74 74 72 68 72 75 76 76 75 74 67 64 66 68 72 71 71 68 62 59 62 58 60 59 57
70 75 76 72 74 75 70 74 71 68 68 70 73 76 74 72 74 76 75 79 78 78 77 71 68 64 63 69 61 67 65 77
63 65 68 78 81 80 81 74 76 78 77 79 78 78 81 82 83 85 86 87 82 79 75 69 69 68 74 71 66 79 72 81
46 51 53 61 65 69 72 77 71 68 75 78 79 81 85 86 88 89 85 82 79 76 68 70 74 73 82 74 86 84 88 88
51 53 52 56 60 62 61 62 70 68 74 76 78 84 84 82 79 79 79 77 77 77 77 78 78 82 83 85 90 89 88 84
47 49 58 58 60 59 63 69 72 72 76 75 74 71 71 71 74 78 77 77 78 82 87 90 89 91 90 90 84 81 82 80
41 43 55 58 59 63 66 70 72 70 72 70 67 67 64 66 72 76 79 80 81 85 89 93 88 84 81 81 81 76 70 72
60 59 55 58 61 65 66 64 62 61 60 58 59 62 65 69 71 74 78 81 80 82 81 81 82 79 73 68 65 67 74 80
55 57 58 60 65 66 61 59 55 53 56 59 61 64 68 69 73 74 74 77 77 76 76 74 71 66 63 67 68 75 81 88
56 61 64 61 56 54 48 49 51 52 55 59 62 63 63 64 66 67 69 70 71 71 69 67 66 70 74 76 77 81 86 94
56 52 51 46 43 45 46 47 50 53 56 57 58 61 62 64 66 68 69 69 69 70 71 72 72 74 79 84 89 92 96 95
43 40 39 40 41 43 46 47 48 50 52 53 56 58 60 64 67 68 68 70 72 75 77 80 80 81 84 90 95 101 107 109
34 34 35 37 40 41 42 46 47 52 57 61 64 67 68 71 68 66 67 69 72 74 75 80 84 84 90 99 104 109 110 113
31 33 34 38 40 42 45 51 52 56 59 66 69 73 75 77 75 72 72 75 76 77 78 79 87 92 100 105 109 113 112 111
32 35 40 44 43 48 53 57 60 64 68 72 75 78 82 82 80 77 78 80 80 79 81 87 93 101 106 111 112 112 108 110

GFSFLT2_250_spd_057.txt.gz
Wind_Speed
63 43 51 60 55 57 59 58 57 59 56 62 62 68 63 64 75 69 75 83 84 83 89 89 77 74 73 75 76 81 70 65
43 63 67 53 58 53 53 57 64 66 54 58 62 62 69 70 69 77 84 84 87 92 88 81 80 75 74 76 76 83 69 59
52 63 57 63 46 55 56 64 62 62 67 61 63 65 72 77 83 83 84 89 89 82 84 83 79 78 77 78 79 74 64 60
62 60 58 49 48 55 62 58 59 60 67 70 72 73 75 82 80 82 80 83 81 80 82 79 81 78 79 77 74 66 64 53
52 55 54 58 57 58 62 68 68 68 75 81 78 79 81 75 78 80 85 85 83 78 79 83 80 80 78 72 68 66 60 59
57 60 63 66 69 70 69 72 73 79 80 81 70 75 78 82 84 80 82 83 81 84 85 86 86 80 78 72 68 65 62 61
56 70 74 70 68 69 72 75 73 78 80 83 83 83 88 88 80 77 79 83 85 86 85 87 82 79 76 74 69 64 68 68
54 58 63 64 68 70 77 74 79 78 77 82 89 84 79 80 80 78 81 85 85 87 86 82 77 77 77 77 75 74 75 76
46 53 60 66 70 72 73 68 67 71 69 68 73 72 73 78 81 82 85 88 88 84 82 78 75 76 80 81 83 85 85 85
52 46 43 46 51 55 58 62 60 66 69 69 71 76 78 81 81 82 80 76 75 76 78 79 81 81 81 81 83 83 85 85
40 45 46 52 56 54 57 60 67 69 66 71 74 75 78 80 79 73 71 70 73 74 78 80 81 81 81 79 79 80 80 79
38 41 52 55 52 53 58 62 65 69 70 73 74 75 67 67 67 70 70 71 71 73 73 73 73 73 71 71 73 74 74 72
43 51 52 53 54 56 59 60 63 65 65 66 63 63 61 62 64 64 65 64 64 67 70 71 71 68 67 68 67 69 69 70
43 46 55 62 62 64 61 61 61 63 61 59 59 59 57 56 55 55 59 62 65 67 69 70 72 72 71 72 72 75 77 79
48 51 54 56 58 58 59 58 57 55 54 54 52 49 49 51 56 60 64 66 70 72 73 74 74 75 75 75 75 75 76 80
54 51 53 53 56 55 53 50 49 50 49 46 48 50 53 57 61 64 69 73 76 78 80 80 78 75 75 77 79 76 73 72
51 51 51 50 50 48 46 46 44 43 42 47 51 54 58 61 66 71 76 79 82 84 86 84 79 78 79 79 78 79 83 85
46 46 46 44 43 45 44 43 45 45 48 53 56 58 60 63 70 74 77 82 85 88 89 82 77 79 81 81 83 89 95 99
40 39 39 41 41 41 44 48 50 53 57 61 64 68 71 75 78 83 86 89 94 93 85 81 79 82 87 92 96 100 104 108
36 35 39 44 45 46 49 54 56 59 63 64 68 75 80 83 86 89 92 96 97 89 86 86 90 92 96 99 101 107 108 109

GFSFLT2_250_spd_060.txt.gz
Wind_Speed
59 50 50 55 53 50 53 55 54 53 55 60 62 62 64 68 64 72 70 69 69 74 78 84 88 84 81 81 76 75 76 77
52 47 53 51 54 48 55 53 49 51 57 54 62 58 61 60 68 72 66 71 75 80 83 81 81 82 84 80 77 73 73 73
48 52 56 57 57 54 47 58 59 58 55 62 67 64 66 69 68 70 73 77 77 79 87 85 91 84 80 84 82 74 79 71
60 57 59 47 43 57 55 55 63 63 60 63 66 65 65 71 75 78 83 87 81 87 87 81 77 82 78 79 80 81 78 76
64 56 59 57 52 59 55 55 60 58 61 62 65 69 72 73 80 82 85 80 85 79 79 81 80 77 78 75 74 78 79 76
70 74 61 59 54 51 62 64 67 65 70 71 71 73 76 79 82 84 77 79 82 84 79 80 81 81 78 79 78 80 78 76
50 41 48 57 57 53 57 63 68 69 64 73 76 81 81 87 87 80 79 77 80 79 80 78 79 80 78 80 79 77 76 77
40 39 46 54 64 63 71 71 75 80 80 83 82 85 82 75 73 76 78 77 78 81 79 79 80 78 78 77 80 82 83 83
42 52 55 48 56 62 65 71 75 74 77 76 77 71 73 71 73 77 77 79 82 83 84 80 77 78 80 79 79 80 79 78
35 41 44 51 56 58 61 65 68 60 63 65 64 69 73 75 76 76 80 83 80 78 76 73 72 70 71 72 74 75 76 76
43 42 47 56 63 63 56 54 54 61 60 65 71 71 76 77 77 78 75 73 70 69 69 66 62 64 66 68 72 76 77 78
44 43 52 50 51 46 52 57 59 62 62 66 68 68 68 69 69 68 64 63 62 61 60 61 63 67 70 74 77 81 81 79
42 44 46 52 56 56 57 58 59 61 69 72 69 70 68 66 62 63 62 60 58 58 62 66 71 72 74 78 80 85 85 81
44 46 50 50 50 49 54 61 62 63 62 62 64 63 60 58 58 58 58 58 61 64 67 71 75 78 80 82 85 89 83 80
39 41 44 50 53 53 54 56 56 55 55 57 58 56 57 58 57 59 62 64 67 69 72 75 79 83 86 88 88 80 76 79
44 48 51 53 51 51 51 55 54 53 56 57 54 55 56 58 62 64 67 70 73 75 77 80 84 89 92 94 85 79 76 73
40 38 50 50 51 51 51 50 52 53 53 55 56 57 59 63 67 71 73 75 77 79 84 87 89 92 94 86 81 81 85 88
41 46 45 46 48 48 48 50 52 53 54 55 57 60 63 66 69 72 76 76 78 83 87 89 92 93 85 81 85 89 95 98
44 44 44 45 46 47 50 51 53 56 57 60 62 65 67 71 76 74 73 78 81 85 89 93 93 84 83 87 90 96 103 106
39 39 43 46 48 49 52 54 57 60 63 65 69 71 73 73 74 77 81 83 86 91 94 92 87 87 91 95 99 105 108 110

GFSFLT2_250_spd_063.txt.gz
Wind_Speed
38 48 45 45 54 53 48 51 51 41 49 54 55 52 54 59 64 62 65 66 68 69 68 67 73 76 81 79 84 87 88 82
42 50 56 51 55 55 52 51 51 45 49 59 57 58 60 58 57 63 69 70 72 70 78 77 80 76 82 82 87 88 77 77
36 44 51 58 56 60 60 53 54 48 54 52 58 63 63 67 65 67 67 74 71 74 77 82 84 87 87 87 79 75 74 74
36 47 53 61 59 50 46 58 59 59 63 65 63 51 57 66 65 63 69 71 73 76 84 87 86 81 82 80 76 77 75 73
44 45 54 50 47 50 49 52 52 52 58 61 64 66 64 62 66 71 79 82 82 83 81 84 81 82 79 82 81 81 78 77
60 55 61 49 59 51 51 58 60 56 62 53 61 61 71 75 73 74 76 77 84 90 88 88 82 82 83 81 84 84 84 79
57 67 65 55 56 58 56 59 62 65 70 67 69 72 74 71 72 83 89 89 82 78 80 81 86 79 83 77 76 73 70 69
65 64 63 55 56 52 58 58 58 60 64 68 71 75 80 81 84 81 78 78 76 80 81 84 83 80 77 75 70 66 69 67
30 41 67 49 44 46 53 52 62 65 69 68 73 73 75 75 78 83 71 76 79 79 82 79 75 75 77 73 69 69 66 67
33 35 40 42 48 48 52 59 61 52 59 66 62 62 61 67 69 70 73 73 75 74 74 73 73 72 66 65 65 68 70 73
36 38 43 51 53 57 56 51 57 63 65 65 66 68 72 74 71 72 76 76 73 73 75 73 69 67 68 69 73 75 77 79
44 48 50 57 57 53 53 55 57 60 65 66 69 71 69 71 73 74 72 68 70 72 70 68 68 69 71 75 78 81 83 84
43 50 59 57 59 59 58 57 61 61 64 63 62 66 69 70 69 69 66 68 68 67 67 69 72 74 78 82 81 82 86 89
50 53 54 52 50 52 54 58 55 53 56 62 65 62 64 65 65 66 67 66 65 67 69 74 77 80 80 79 81 85 88 92
48 47 44 46 48 47 50 49 52 57 60 59 58 59 62 62 64 68 68 67 68 70 73 77 80 78 79 82 84 86 91 97
40 42 43 47 50 54 52 52 53 56 57 57 57 59 62 64 69 70 69 69 72 76 79 80 78 80 83 87 90 93 95 94
38 43 48 46 46 46 48 49 50 51 54 55 58 62 65 69 72 74 74 75 77 76 76 77 80 84 87 90 94 97 99 95
46 47 50 52 48 47 47 47 49 52 55 58 63 65 69 71 71 72 73 75 75 75 79 81 84 87 89 94 96 98 97 94
45 44 47 45 48 46 44 46 50 55 58 62 65 64 64 66 70 72 74 72 76 79 82 84 86 88 93 99 99 98 95 95
46 45 47 49 44 42 45 50 53 57 58 59 61 66 68 71 73 73 72 76 79 82 84 87 90 93 100 102 100 99 100 105

GFSFLT2_250_spd_066.txt.gz
Wind_Speed
39 44 45 49 54 57 55 48 43 46 46 48 50 42 46 54 59 61 62 62 64 64 66 67 64 69 75 67 70 73 79 79
44 47 49 40 44 52 56 51 49 50 50 48 53 57 59 56 51 55 53 60 65 68 67 74 76 71 76 77 81 81 85 81
45 42 39 35 51 47 45 49 55 53 54 56 58 58 57 60 62 64 65 71 74 67 65 67 69 75 80 79 80 81 76 72
43 40 48 37 52 56 58 58 57 55 55 55 57 58 59 61 63 60 65 70 70 67 69 74 77 83 88 87 77 75 77 79
42 43 40 45 46 51 58 60 63 62 60 55 55 57 63 61 62 68 68 69 71 76 78 81 82 83 81 82 80 82 81 84
33 38 47 45 52 52 51 57 54 51 58 55 52 61 58 66 64 65 73 81 75 80 84 85 87 86 86 82 81 80 78 77
42 43 43 54 52 51 55 51 48 52 52 57 58 59 63 61 70 72 76 78 81 75 80 81 80 77 78 77 78 77 74 72
54 55 54 58 60 60 59 50 48 47 49 49 55 62 64 65 69 75 77 77 81 76 75 78 82 79 80 83 76 73 70 67
52 54 59 61 54 56 57 50 53 41 44 52 55 60 66 70 69 68 71 69 70 78 83 80 80 82 79 73 71 70 70 71
54 56 49 54 56 56 50 51 60 61 61 62 66 71 72 74 76 77 76 78 85 83 79 79 79 77 75 72 71 71 71 74
45 49 46 47 45 53 54 57 48 55 66 69 72 70 69 68 71 71 74 75 74 75 76 76 75 73 73 73 72 73 75 76
33 37 40 48 43 41 44 45 57 68 67 65 62 65 68 71 72 70 71 74 73 74 73 71 72 74 74 75 76 79 82 83
37 36 37 39 44 48 46 53 60 63 65 65 67 70 70 69 68 69 72 69 70 70 70 72 74 77 78 78 80 82 81 80
33 38 41 41 47 54 58 64 61 63 63 62 64 64 66 68 67 66 67 66 67 70 71 74 78 79 79 80 80 79 81 83
42 44 44 47 50 54 59 60 63 56 57 58 61 60 60 63 61 62 63 66 71 73 78 79 77 77 77 77 77 80 83 87
43 43 46 50 49 52 53 54 52 54 55 55 57 57 58 58 58 63 67 71 74 74 72 74 78 77 76 80 83 85 86 85
48 45 44 46 43 44 50 54 56 49 53 59 59 57 56 59 62 66 71 71 72 75 76 76 75 77 80 84 87 89 92 94
43 43 40 42 44 49 56 59 54 55 57 55 55 56 60 63 66 69 70 73 74 74 73 73 77 80 83 85 89 92 95 97
42 43 43 50 50 53 53 52 53 57 54 54 58 61 64 68 71 71 73 73 72 70 73 77 81 83 88 92 95 98 100 103
48 49 50 45 43 42 44 53 54 50 54 58 62 66 69 70 71 72 72 67 71 76 79 82 84 90 94 96 100 103 105 107

GFSFLT2_250_spd_069.txt.gz
Wind_Speed
36 38 40 45 49 45 48 51 56 61 60 59 52 53 52 48 49 54 56 56 59 62 62 62 61 65 66 70 67 66 70 73
36 37 40 44 44 51 54 50 51 49 55 55 42 45 47 47 54 53 53 58 60 58 58 59 60 65 71 66 70 72 74 78
35 32 37 40 32 40 43 41 44 45 50 49 51 55 59 58 59 57 53 55 61 62 65 64 68 71 74 71 75 77 80 76
43 39 37 30 41 51 49 41 46 47 49 49 53 57 61 58 61 63 63 57 58 63 63 67 65 72 77 77 75 74 74 75
49 48 49 44 52 52 39 42 50 54 53 60 63 61 63 66 66 61 60 64 62 62 65 73 75 76 77 77 80 77 78 78
47 46 47 49 49 44 39 42 44 52 53 55 59 46 44 55 55 54 61 59 63 70 68 71 73 76 77 75 71 81 82 75
48 52 43 53 50 45 42 50 52 53 50 51 52 54 54 52 50 55 64 66 71 73 76 78 79 80 79 81 80 79 77 77
46 47 51 50 53 51 54 56 56 57 61 60 59 59 50 52 57 57 61 65 69 75 77 80 78 73 76 76 78 78 77 74
39 40 47 47 49 49 52 57 59 56 48 46 51 55 53 61 68 72 71 76 76 83 77 81 76 78 75 77 77 77 71 72
41 42 46 50 52 49 47 53 65 58 57 62 59 57 61 60 63 69 75 79 78 80 80 75 74 72 77 75 73 71 71 73
42 44 51 53 54 57 57 58 55 56 56 57 60 63 67 76 74 76 81 78 77 78 76 74 74 75 71 69 69 72 74 77
40 45 52 54 56 57 59 50 53 58 57 55 56 60 64 66 68 75 74 74 73 73 75 74 72 69 68 71 74 76 77 76
38 37 41 43 48 50 48 45 43 54 52 55 58 62 66 68 67 68 68 70 71 72 72 70 66 67 72 75 75 76 78 79
37 36 36 37 42 41 44 42 45 46 53 59 64 70 69 71 69 66 64 68 69 67 65 65 67 71 75 76 78 78 78 77
33 35 35 35 34 39 41 48 54 55 59 66 67 66 62 64 64 63 68 66 66 64 66 69 72 75 78 79 79 75 75 80
32 34 36 39 43 48 50 56 57 60 62 62 58 59 60 60 63 65 65 64 63 66 70 73 77 80 79 77 77 81 83 82
36 42 43 45 50 50 51 51 55 47 47 53 58 61 59 62 64 63 63 64 66 71 75 78 78 78 76 79 83 86 86 88
47 46 42 44 44 45 46 44 49 53 54 57 57 56 60 64 63 63 65 68 73 74 76 77 75 76 80 85 86 86 91 94
45 46 42 37 40 44 46 50 49 52 52 54 55 60 63 62 64 67 70 73 75 76 74 75 76 81 84 84 88 93 96 97
42 44 42 43 46 49 51 51 49 53 53 53 57 60 62 65 67 70 74 76 76 76 75 78 82 84 85 89 94 97 100 102

GFSFLT2_250_spd_072.txt.gz
Wind_Speed
44 41 40 33 36 43 49 56 59 60 60 62 64 64 63 64 63 59 61 54 56 55 59 55 57 58 63 66 67 69 72 73
33 36 38 40 41 37 39 42 45 46 47 50 48 43 45 45 47 49 47 49 52 53 52 53 58 61 65 67 69 67 72 73
35 35 40 38 35 42 42 42 43 41 45 40 38 43 44 46 49 49 54 57 58 56 58 64 66 58 63 73 70 73 73 74
39 38 44 40 39 43 36 30 30 38 43 41 45 47 46 48 51 57 59 61 60 63 67 58 63 68 67 69 72 75 76 79
48 47 42 42 42 37 33 36 50 39 41 48 50 53 53 55 58 60 60 65 61 60 61 59 62 66 70 73 77 79 80 81
52 49 46 49 44 45 41 46 50 50 38 43 45 48 50 51 54 56 58 53 56 57 55 62 67 74 73 73 78 80 80 78
46 49 50 48 40 41 42 45 48 49 45 45 53 56 56 55 53 52 52 56 59 61 67 69 73 74 77 78 81 80 76 75
44 40 44 45 46 42 50 44 44 44 52 50 59 58 58 57 61 63 64 60 59 67 69 74 75 78 76 81 80 81 77 78
52 41 47 44 47 49 47 52 55 49 54 53 56 59 61 46 49 57 57 57 64 67 69 72 78 80 80 86 78 76 78 78
49 53 52 46 51 52 51 54 60 59 54 60 63 64 65 68 67 70 67 69 66 68 72 69 73 78 77 74 75 77 75 73
51 41 46 49 51 59 57 58 58 60 54 59 63 68 68 73 72 69 64 68 69 70 74 75 74 76 75 75 76 76 72 68
38 39 46 47 50 51 52 56 60 59 59 60 63 62 63 64 63 61 63 65 67 68 72 74 72 72 75 75 73 70 69 70
35 36 50 49 48 50 54 56 62 61 61 67 66 65 57 55 61 63 65 71 73 74 76 75 71 76 75 71 70 71 72 75
39 38 41 45 49 51 56 62 59 56 58 58 58 54 55 56 63 68 75 73 70 70 69 72 72 73 72 72 72 72 75 81
41 41 42 43 44 46 46 46 47 47 47 50 53 56 58 66 71 70 70 66 69 70 71 72 71 71 74 75 76 78 80 80
34 42 44 41 47 48 45 43 45 46 51 56 58 60 63 65 63 63 64 67 71 69 72 72 73 73 75 79 82 84 84 82
38 41 41 39 35 38 42 44 52 55 59 62 63 61 60 60 63 67 64 68 65 72 72 72 74 78 80 83 83 83 83 85
36 37 42 40 43 46 48 50 52 56 56 58 61 57 59 62 62 63 64 67 71 72 72 75 77 80 83 83 83 84 86 87
44 43 46 49 51 55 54 51 49 48 53 55 62 61 61 60 60 65 67 69 70 72 76 78 81 82 83 84 84 87 90 92
44 45 45 43 43 46 49 50 52 56 58 63 60 60 59 59 64 70 69 69 71 77 80 81 81 83 83 85 88 91 95 98

GFSFLT2_250_spd_075.txt.gz
Wind_Speed
39 38 38 49 53 57 57 58 56 62 66 67 68 68 71 67 66 59 61 61 52 56 54 54 52 55 61 58 59 59 66 68
27 24 24 34 40 40 42 47 51 55 58 61 62 61 56 53 51 39 40 46 49 47 48 52 54 57 58 62 64 65 66 70
36 31 24 26 34 29 29 35 38 40 41 41 38 36 40 40 39 41 45 47 47 51 54 57 58 64 67 67 68 69 76 72
42 35 29 29 34 32 27 35 40 38 35 35 33 37 42 44 45 47 48 48 49 52 58 63 63 65 67 62 67 72 69 74
44 36 30 33 22 44 44 35 42 38 35 33 38 41 45 49 50 49 52 55 59 59 59 59 58 61 65 63 64 71 76 76
49 49 47 46 47 46 42 49 43 38 33 38 37 48 47 46 53 55 47 48 52 54 58 57 58 54 66 70 75 76 76 79
53 54 54 44 51 45 45 48 42 46 50 49 47 51 48 48 46 50 57 55 57 60 56 59 64 70 69 70 75 79 77 72
52 53 55 48 48 51 49 52 50 46 51 54 49 55 47 49 50 45 47 46 54 60 67 65 65 68 75 77 74 78 79 81
39 42 53 54 42 45 47 46 50 51 50 48 52 52 55 56 55 57 58 54 59 62 60 69 74 79 78 80 80 80 78 77
37 39 51 61 47 46 56 48 47 48 53 54 53 55 57 59 61 62 58 63 67 66 73 80 77 75 73 74 73 78 78 79
33 38 50 51 48 46 46 47 51 47 55 56 56 55 55 58 61 62 70 72 66 73 71 73 71 72 75 77 80 81 77 80
44 45 48 46 48 47 49 51 52 49 52 52 57 58 59 64 67 68 72 74 79 72 66 69 73 80 81 79 79 80 80 80
52 50 47 44 44 53 49 46 50 52 55 60 63 66 66 64 67 71 77 71 69 68 69 74 80 80 80 79 79 79 81 80
48 40 48 46 46 54 51 54 54 52 52 59 64 68 70 68 71 74 62 62 64 68 73 77 76 79 76 79 77 77 75 75
49 41 39 46 50 47 51 54 53 54 58 61 65 69 70 64 61 60 61 65 70 74 75 74 74 78 79 77 78 81 81 81
54 47 46 43 41 44 45 53 54 57 56 58 58 58 58 57 60 62 68 69 73 74 75 76 76 76 73 78 83 83 83 84
46 50 50 51 53 54 54 52 53 55 58 60 59 59 64 64 64 67 69 68 68 72 76 75 72 75 78 82 82 81 85 87
34 42 41 45 47 48 52 53 52 48 51 54 59 62 68 69 69 68 66 71 74 75 73 72 75 80 85 84 83 85 87 87
37 38 39 40 40 41 43 48 52 56 57 62 65 63 62 64 67 70 72 76 74 70 71 74 80 85 83 86 87 89 90 92
44 43 44 45 49 51 51 53 57 60 60 57 59 61 64 68 71 72 72 71 71 73 76 81 83 82 85 87 89 92 92 94

GFSFLT2_250_spd_078.txt.gz
Wind_Speed
24 40 34 33 31 41 46 51 60 69 67 66 69 66 68 70 72 71 69 68 69 71 71 67 64 62 57 55 55 56 56 60
43 30 39 35 35 37 41 43 50 55 50 51 57 61 63 63 64 65 61 62 59 56 59 53 49 47 48 56 56 58 60 63
48 33 37 28 25 28 34 30 30 31 34 36 40 44 46 47 47 44 43 46 49 48 48 49 47 49 53 54 57 60 64 64
67 47 39 26 20 21 22 15 19 23 24 29 33 29 31 33 39 38 35 42 44 47 48 49 53 54 60 58 60 58 63 60
66 47 30 34 29 27 27 28 31 30 32 31 32 35 36 35 38 43 44 47 54 53 57 54 55 58 55 59 64 60 59 61
59 48 38 38 34 39 37 40 38 41 39 39 44 44 40 36 44 44 48 53 49 56 59 62 59 62 60 60 62 66 67 73
61 49 46 42 38 40 43 39 42 41 39 46 44 42 46 41 48 48 49 52 48 46 54 55 62 53 57 67 67 67 66 79
60 57 52 50 42 44 48 42 46 47 48 46 48 49 50 56 53 48 54 50 53 56 57 54 56 56 57 59 65 71 82 77
67 63 58 52 48 47 43 50 46 50 49 51 52 53 56 53 58 56 56 54 52 54 57 59 57 59 63 72 73 80 76 74
63 60 59 55 55 56 52 48 54 53 43 43 52 55 55 58 57 57 61 65 63 65 66 68 73 76 79 83 77 80 78 75
62 56 54 57 57 62 59 53 55 56 46 49 48 52 55 56 57 59 60 60 62 60 64 67 72 78 79 75 73 74 77 80
53 50 51 54 53 59 63 56 53 53 52 55 57 51 52 50 53 55 52 56 62 67 71 76 78 78 77 73 73 76 78 82
43 47 48 51 57 56 60 51 50 47 49 48 47 50 52 54 59 59 64 67 68 75 77 80 81 75 73 73 76 81 82 82
44 48 44 42 48 54 53 46 46 40 40 44 50 57 57 59 58 62 67 71 77 79 78 75 71 74 75 79 80 78 80 85
43 53 51 44 46 50 52 46 48 51 54 56 56 59 61 64 65 67 68 68 71 69 66 70 72 74 77 79 78 82 84 81
43 48 54 55 46 39 46 51 57 59 57 58 61 60 63 66 71 70 67 63 66 67 72 74 78 77 76 79 83 85 81 78
41 40 50 53 47 47 49 47 49 54 58 58 63 65 64 62 63 61 63 66 69 74 76 77 78 77 80 82 78 78 81 83
34 37 43 49 52 51 50 54 56 56 58 60 62 64 65 63 66 68 67 69 74 76 76 78 80 80 80 79 80 84 88 91
35 34 32 41 48 51 54 52 55 55 54 55 58 59 61 64 67 71 72 71 75 77 78 81 79 79 78 83 86 91 93 90
40 41 42 42 42 45 47 49 50 51 54 58 59 61 66 70 71 68 69 74 78 76 77 78 79 80 82 82 87 89 89 92

GFSFLT2_250_spd_081.txt.gz
Wind_Speed
26 31 34 30 32 30 37 38 41 41 40 43 52 62 66 67 66 67 66 68 71 71 72 74 69 68 69 67 56 57 48 53
36 49 37 39 38 29 38 37 39 39 42 45 47 50 54 58 61 60 56 61 62 63 65 64 66 57 56 46 48 47 45 52
50 48 52 39 35 33 29 32 34 37 32 28 31 32 34 40 42 46 47 50 48 50 47 44 40 41 42 42 46 48 49 56
60 55 40 26 41 29 26 22 23 23 23 22 24 20 18 23 30 36 39 41 40 39 40 38 41 42 45 49 53 56 57 60
56 56 50 49 43 34 34 34 31 32 29 25 22 19 24 29 30 29 30 37 43 37 38 42 46 50 54 55 57 60 58 61
62 62 53 52 58 41 29 28 31 30 26 33 27 26 32 34 36 36 37 40 40 41 43 47 52 54 50 49 53 59 62 59
58 58 57 56 58 47 39 32 35 33 33 38 39 38 41 40 43 44 46 42 39 46 49 51 49 46 48 53 57 56 61 64
62 55 62 61 53 44 43 44 36 40 39 45 43 46 46 45 43 46 48 47 44 51 53 52 52 54 54 57 59 59 62 66
72 61 58 56 54 47 49 51 48 44 45 42 43 43 44 45 47 49 50 51 55 56 54 56 59 54 57 60 66 74 74 80
75 57 63 63 60 56 51 52 52 48 52 52 48 50 51 49 50 50 53 55 57 56 58 60 61 68 68 67 67 72 74 78
64 61 60 62 63 55 57 56 55 55 57 55 56 53 52 52 50 50 52 55 55 59 60 61 60 64 63 67 71 76 79 82
60 61 63 67 65 60 55 58 59 60 61 60 56 57 56 55 59 55 57 55 57 57 58 60 57 61 70 75 79 81 82 81
61 61 65 71 67 65 70 64 65 62 61 64 63 62 64 66 66 60 59 60 61 64 65 66 66 69 74 75 73 76 72 73
67 67 62 69 72 70 70 65 65 62 62 64 67 66 64 60 58 54 56 60 60 62 64 69 73 74 68 68 68 70 76 79
73 68 66 67 65 66 62 60 60 64 63 65 66 69 69 68 62 57 60 64 67 70 71 72 72 72 72 72 75 78 79 82
51 56 59 56 59 60 61 59 58 56 59 61 65 63 58 59 63 65 67 70 69 68 71 69 71 72 76 79 80 84 84 84
46 47 47 48 53 56 56 50 41 41 47 50 54 56 58 60 61 63 64 64 68 72 70 75 76 78 80 81 82 85 87 88
35 37 41 48 51 52 57 63 60 58 58 53 54 55 58 59 62 66 67 69 70 75 79 79 79 84 83 82 84 86 85 88
40 40 43 42 42 44 46 49 54 61 59 60 63 64 66 67 68 71 71 70 72 74 78 79 81 81 83 84 87 89 86 85
34 35 38 43 41 40 41 42 47 53 58 58 60 65 66 64 65 67 70 73 74 75 76 79 82 84 86 87 87 88 87 86

GFSFLT2_250_spd_084.txt.gz
Wind_Speed
40 36 31 23 33 34 36 37 36 46 46 47 41 41 40 41 46 51 54 56 58 59 62 66 64 64 65 70 65 57 56 55
43 50 44 27 54 43 47 41 41 46 47 47 44 41 40 38 38 42 47 51 55 57 58 57 61 59 58 53 54 48 51 53
32 40 31 28 53 49 56 39 41 37 45 44 35 30 31 37 36 42 44 45 46 50 47 47 45 45 53 47 45 48 43 44
43 43 39 53 46 51 52 45 34 26 26 35 34 28 30 31 34 34 31 32 35 37 40 42 46 41 45 40 37 39 46 50
57 39 30 50 48 60 65 59 38 28 27 34 24 24 26 29 34 34 30 33 35 37 39 39 38 37 36 42 42 48 52 54
55 51 47 55 53 63 51 47 39 35 37 35 31 25 25 27 29 29 29 34 37 37 34 35 36 35 42 47 50 52 52 51
58 55 56 55 53 53 50 52 41 39 36 33 34 36 31 33 37 37 32 35 40 39 40 42 43 44 48 52 54 56 56 61
61 61 62 66 60 62 50 45 39 40 39 39 39 35 35 38 41 38 38 39 41 43 45 46 49 51 52 56 58 58 59 60
69 74 60 65 50 55 56 47 44 48 46 40 37 36 38 39 43 43 45 43 44 46 49 52 53 56 56 55 58 62 61 63
59 69 63 60 60 52 56 57 52 48 47 48 44 39 43 43 44 48 45 49 50 50 51 52 55 56 58 61 60 65 71 67
67 70 66 63 58 60 58 57 59 56 51 51 53 53 52 52 54 53 52 54 57 55 57 57 58 61 63 64 69 68 66 69
72 73 76 72 62 59 59 65 66 68 66 62 60 60 61 60 62 63 62 62 62 63 63 64 65 68 69 64 66 69 72 74
76 74 78 82 79 73 70 70 69 58 57 60 64 62 65 67 68 66 68 69 69 68 71 73 74 71 71 68 69 75 75 74
73 69 74 72 77 76 70 63 67 71 70 66 67 67 67 66 65 69 70 72 74 73 74 74 70 69 68 69 73 79 77 75
61 62 70 72 71 66 65 64 63 67 70 67 67 65 68 68 73 70 72 73 71 69 68 70 68 68 71 73 73 74 78 79
61 62 64 69 67 64 66 67 63 64 68 67 62 63 68 66 60 61 61 63 63 63 66 68 72 72 74 76 77 78 79 82
60 61 64 68 70 68 68 63 63 61 61 58 55 52 52 53 58 60 64 65 64 69 72 70 71 69 70 76 80 86 82 85
58 57 53 50 51 52 53 55 54 56 60 59 56 57 56 58 62 63 64 67 68 71 72 74 74 76 79 80 82 84 85 84
49 47 46 47 49 52 55 57 58 55 57 61 60 58 61 66 71 74 77 75 78 78 76 75 75 77 80 83 85 89 87 84
39 39 41 42 45 45 48 50 50 53 52 50 51 52 56 62 65 69 73 73 72 75 76 76 76 78 80 83 83 86 89 85

GFSFLT2_250_spd_087.txt.gz
Wind_Speed
43 43 42 34 25 36 27 22 19 17 18 29 34 33 35 43 47 45 43 40 49 51 48 53 58 60 58 57 56 53 53 56
46 55 39 29 35 34 32 36 21 17 22 34 36 39 41 43 49 41 38 35 36 38 44 50 50 50 53 50 49 52 50 50
42 46 34 22 38 30 43 45 30 25 25 38 43 44 47 50 43 36 39 33 32 36 36 38 39 42 43 45 46 44 46 44
46 45 38 32 44 42 51 49 41 32 30 22 36 28 32 33 35 39 39 40 32 30 30 31 33 37 39 40 41 42 35 41
46 47 47 33 36 48 46 30 43 34 32 32 17 25 33 33 36 38 42 42 30 33 32 28 31 33 37 35 34 37 37 43
40 33 44 43 35 54 48 45 53 45 36 35 23 33 35 33 32 31 40 30 37 32 30 31 37 35 38 37 39 43 46 48
36 27 42 44 37 46 48 46 48 41 41 41 35 31 29 26 30 40 38 33 32 29 33 41 38 38 39 40 43 48 51 53
37 35 42 38 37 44 50 45 47 48 45 46 41 37 32 27 37 38 37 36 35 34 39 40 42 41 44 45 49 52 55 56
42 40 50 50 49 49 57 52 53 50 52 50 46 41 43 45 36 39 35 36 41 42 41 46 48 47 51 49 55 56 57 55
50 49 49 51 55 58 57 50 54 54 51 51 49 44 45 42 39 43 41 44 44 48 49 50 51 53 58 58 58 59 60 64
57 57 51 59 51 59 57 53 49 57 56 48 50 45 43 42 46 47 48 52 55 60 60 60 61 62 60 62 64 67 68 70
57 59 54 53 61 50 60 57 58 53 49 46 47 45 50 51 55 57 61 59 62 63 64 62 64 67 68 70 71 70 74 78
59 63 58 62 61 60 57 54 54 53 51 56 58 64 67 69 66 63 60 62 61 63 66 67 67 68 63 66 67 72 72 76
57 68 64 61 67 71 67 68 64 63 59 63 66 69 71 67 69 71 66 62 60 64 61 57 61 65 70 71 75 74 73 71
66 71 67 65 66 70 72 74 74 74 73 70 70 71 66 66 64 63 66 67 58 60 62 64 69 68 67 67 69 69 71 74
76 72 71 75 73 72 77 77 75 77 76 75 74 71 70 70 71 62 68 64 57 61 64 60 60 62 64 66 70 73 77 78
59 72 76 72 80 75 76 71 72 72 73 71 71 69 71 74 66 63 60 64 62 63 61 62 66 66 69 75 78 82 80 81
58 66 69 73 70 69 67 70 69 69 75 74 70 72 65 62 60 56 59 63 61 65 66 70 71 73 75 74 73 76 80 82
44 52 64 66 68 65 71 65 69 66 65 67 63 57 56 56 54 58 61 62 65 67 70 71 72 73 74 75 76 76 76 78
37 39 42 51 58 56 56 59 59 60 59 53 52 52 54 57 61 60 61 65 70 73 71 71 71 69 68 70 70 71 72 79

GFSFLT2_250_spd_090.txt.gz
Wind_Speed
43 40 35 37 42 37 46 42 33 24 23 21 21 21 21 19 18 18 23 31 38 29 31 33 30 33 39 43 44 46 45 48
39 36 29 38 44 51 43 41 36 31 25 26 24 21 18 22 25 28 31 41 26 30 34 27 27 27 26 30 33 35 40 41
32 35 40 44 49 46 46 39 31 28 22 16 16 14 19 25 28 33 33 27 43 25 37 27 26 23 23 27 29 29 33 35
32 38 39 43 41 44 42 34 28 25 21 17 20 25 30 35 30 23 19 28 26 42 27 28 29 22 26 28 26 25 30 34
35 36 39 45 43 46 37 31 28 36 28 22 26 30 32 25 22 24 32 29 36 35 23 30 27 23 30 26 29 28 34 40
39 39 45 41 37 40 36 43 42 41 38 35 31 31 32 26 24 16 23 25 25 16 27 29 27 30 28 30 36 38 50 40
31 37 32 44 41 37 45 36 42 44 51 41 40 33 37 37 27 27 15 23 23 21 26 27 31 31 37 37 39 40 44 45
38 36 36 29 33 34 38 39 43 42 38 47 47 41 37 34 32 25 23 27 22 24 25 28 30 37 40 50 50 44 48 53
37 40 34 33 38 33 38 43 34 50 51 54 50 44 40 40 38 33 33 27 29 32 36 35 43 51 51 54 49 49 54 58
30 36 26 33 37 38 37 49 44 46 47 50 51 51 48 48 44 36 36 37 38 39 43 51 54 54 50 52 56 57 57 60
34 28 30 34 33 41 46 51 50 50 54 55 54 43 45 44 45 44 43 40 43 49 57 59 58 53 53 57 57 61 61 62
41 33 38 39 42 41 46 50 54 54 59 58 55 52 49 46 47 44 47 53 58 61 62 59 58 56 58 59 59 61 58 58
48 42 38 43 40 48 48 55 56 55 53 43 39 46 49 49 49 51 58 63 68 69 66 61 60 61 57 60 57 55 59 62
57 54 45 54 44 41 57 57 58 57 54 56 57 58 55 55 55 58 62 66 63 63 62 62 56 59 53 54 58 61 63 65
64 61 54 54 58 52 47 55 62 61 62 56 60 63 67 67 69 75 69 68 72 59 62 58 59 54 58 57 58 62 60 63
63 65 62 53 55 64 62 60 60 64 63 67 69 70 74 74 72 72 71 62 59 60 61 59 60 57 61 59 62 63 68 71
67 63 67 65 68 59 72 71 69 67 69 72 76 74 68 65 65 65 61 57 55 58 60 59 59 61 63 63 61 65 67 66
68 67 62 64 65 63 68 72 74 72 73 73 73 73 71 65 67 63 61 62 61 60 63 66 65 64 59 61 65 63 63 62
55 58 64 70 65 67 64 70 70 74 72 70 66 58 60 58 57 57 55 58 58 60 61 62 62 64 65 63 63 62 61 63
37 39 53 53 53 55 55 54 61 67 66 56 56 61 63 66 66 67 64 62 57 57 58 60 65 65 62 61 57 61 64 71

GFSFLT2_250_spd_093.txt.gz
Wind_Speed
44 37 28 17 17 16 28 35 42 41 39 42 24 25 16 16 21 27 22 22 11 11 10 12 13 16 17 15 13 17 18 21
50 49 50 41 28 21 28 37 35 35 36 33 35 23 17 21 22 19 14 12 16 25 18 19 21 17 14 12 14 10 12 15
59 57 57 47 34 32 30 30 35 38 35 29 24 25 26 24 23 20 15 16 22 17 21 14 19 18 13 15 17 14 11 22
51 55 57 36 30 35 36 38 40 38 34 32 28 29 26 25 22 19 21 20 14 20 26 23 26 20 15 17 19 24 28 35
42 43 36 38 40 42 44 45 41 35 39 39 38 28 25 23 17 16 16 18 15 19 18 25 27 21 17 31 33 36 32 39
29 36 38 39 41 47 45 36 41 40 41 37 40 25 18 22 18 20 18 16 15 19 24 26 20 33 29 22 32 40 40 41
25 28 26 37 50 41 40 49 49 41 41 35 30 22 25 28 28 28 29 24 21 19 26 23 28 31 22 32 40 48 44 48
25 27 21 30 46 45 44 48 52 48 38 38 31 29 29 32 36 36 33 26 26 34 21 22 25 22 34 43 46 45 48 50
22 30 30 29 32 43 40 44 41 33 32 40 35 33 35 33 37 36 33 30 32 26 23 27 27 35 44 48 53 54 51 46
25 30 29 30 33 44 38 38 38 37 36 42 41 39 44 43 42 42 37 37 34 35 33 34 41 48 57 55 58 56 51 49
22 34 31 25 29 32 33 30 37 42 51 51 46 46 50 44 43 40 36 38 39 41 48 48 52 52 55 57 58 56 52 51
33 24 35 21 33 32 35 41 41 47 46 45 50 50 52 52 50 47 47 45 49 47 48 53 53 56 63 67 58 54 55 49
44 31 30 26 26 32 37 39 42 45 47 46 54 56 51 53 56 49 46 40 53 54 58 62 64 70 63 63 56 49 47 47
49 36 37 29 32 29 30 36 43 46 51 50 53 53 53 48 51 55 51 54 51 55 60 67 71 68 64 52 49 51 51 53
50 46 39 42 35 35 36 37 43 43 49 48 55 55 55 55 53 57 61 61 64 68 71 69 66 61 58 51 51 55 55 56
47 53 48 46 44 41 43 47 46 49 54 55 54 52 52 55 60 66 68 69 70 69 66 61 56 58 55 54 56 57 55 56
53 54 58 55 51 52 47 56 55 49 54 55 60 65 68 69 71 69 72 74 68 66 54 58 58 56 53 52 53 56 57 59
35 46 49 53 50 59 61 53 55 64 65 61 65 65 67 69 71 75 73 65 56 58 59 56 56 52 51 55 58 57 57 61
34 42 46 50 56 56 61 59 58 57 65 72 73 76 77 80 79 64 59 55 55 59 59 55 50 50 54 58 57 57 57 57
22 31 34 34 35 45 58 52 55 55 55 63 64 62 67 66 67 60 57 54 52 55 52 52 51 48 52 52 48 46 45 51

GFSFLT2_250_spd_096.txt.gz
Wind_Speed
37 31 56 47 22 27 20 20 16 34 38 37 34 37 39 33 33 30 31 30 28 22 19 20 17 11 5 9 12 11 7 15
39 42 50 41 38 43 22 20 21 25 34 33 32 32 24 24 25 27 32 30 26 23 17 19 12 12 16 12 4 7 6 3
50 49 56 52 55 41 23 12 24 29 36 33 37 26 22 28 25 26 23 30 25 17 17 20 11 10 15 11 12 8 11 15
54 48 54 64 56 40 34 49 35 32 36 35 35 29 30 23 32 26 29 24 21 16 19 20 16 14 11 14 21 24 23 24
53 46 51 59 53 43 30 37 34 30 28 28 31 28 31 31 28 29 26 22 17 17 17 10 16 17 5 18 27 28 27 34
53 54 52 55 49 47 40 37 32 27 27 32 31 35 35 33 31 32 25 17 11 18 20 14 17 17 24 23 34 29 37 39
44 56 51 43 47 46 41 45 36 29 29 33 37 36 33 33 34 32 31 26 13 17 20 23 16 25 28 30 25 31 39 41
28 43 55 43 46 46 45 45 38 39 39 39 39 42 39 30 26 27 26 28 24 17 21 24 19 24 29 32 39 42 46 49
22 23 36 28 40 36 43 37 39 36 43 42 43 42 46 36 29 28 26 29 27 26 28 28 30 30 36 40 41 45 45 46
20 27 30 29 26 45 24 30 41 44 45 45 40 38 33 32 33 35 27 33 30 33 31 29 33 42 42 40 52 52 54 59
25 25 30 30 28 37 30 43 47 46 47 43 38 39 42 36 39 38 36 38 38 39 35 33 42 39 45 53 55 61 62 66
29 30 32 30 31 33 38 37 50 45 47 38 38 37 37 36 40 32 35 38 42 37 43 50 44 49 50 54 66 68 68 65
35 32 35 31 27 26 32 39 42 42 42 42 41 39 42 46 46 43 52 50 50 54 55 44 52 49 59 69 66 71 67 57
43 35 33 37 31 30 29 35 40 39 41 44 49 52 49 49 52 53 54 56 56 54 53 55 54 59 68 67 70 68 60 51
43 44 35 36 33 38 38 39 43 44 48 46 49 51 50 51 51 53 55 52 60 55 56 58 57 67 73 73 70 61 54 55
46 50 45 36 36 38 40 39 42 42 48 49 52 56 57 53 58 58 61 64 61 64 66 68 70 76 77 67 56 54 57 57
51 45 55 50 43 40 39 38 44 46 46 44 47 47 53 53 55 58 59 58 61 66 67 74 74 71 61 55 55 57 62 62
45 49 48 57 51 52 49 42 45 45 46 50 54 55 55 55 58 61 63 69 73 74 71 62 61 55 54 54 58 59 63 63
29 43 45 54 60 52 51 56 51 58 53 54 58 55 61 64 65 65 65 69 70 70 71 64 61 55 54 54 61 61 60 60
16 31 40 42 47 49 53 52 56 62 60 59 60 65 69 67 73 73 69 64 68 71 67 65 60 54 54 58 60 61 60 57

GFSFLT2_250_spd_099.txt.gz
Wind_Speed
45 40 35 28 33 43 33 44 33 25 21 26 38 38 37 35 45 45 46 45 40 47 38 35 28 26 22 17 18 24 26 25
50 43 42 46 54 61 46 37 29 22 21 18 31 33 34 37 50 52 42 45 48 40 38 35 31 27 18 16 11 11 16 24
42 42 39 47 51 54 56 43 31 37 19 14 25 31 30 36 44 50 42 29 32 32 28 30 27 23 20 17 16 17 16 9
32 38 44 50 52 40 49 37 35 39 37 20 29 29 25 29 29 30 31 28 35 33 33 28 27 22 17 20 21 19 19 15
31 37 57 56 53 57 59 44 39 35 38 31 29 29 28 23 28 31 29 24 32 29 29 29 29 29 24 17 20 26 20 20
37 43 56 64 55 53 54 54 41 56 48 39 33 41 29 29 32 32 28 29 26 31 30 31 27 26 20 21 28 16 20 26
20 53 54 59 59 56 56 52 48 53 46 34 36 37 34 34 33 28 29 28 27 26 34 30 20 21 24 29 19 19 24 32
18 46 56 60 63 59 59 52 61 55 58 42 35 36 40 39 33 34 33 31 28 20 18 25 20 18 26 24 21 25 31 35
17 38 55 51 55 62 72 62 52 49 49 50 38 38 38 41 41 39 32 33 31 27 22 21 23 24 28 28 31 33 41 43
21 19 46 47 45 54 59 54 55 45 43 46 45 35 39 41 43 36 36 38 30 27 24 23 29 28 31 34 36 43 46 52
25 26 30 35 33 41 47 44 50 49 52 48 45 41 39 39 41 39 39 39 33 28 32 34 35 36 33 40 45 46 55 61
32 25 32 37 33 32 32 29 29 48 54 49 44 43 43 40 40 39 32 36 36 31 28 33 39 38 42 47 50 58 62 64
38 32 30 38 41 39 41 34 31 38 45 47 48 48 42 40 35 36 38 35 38 35 39 44 46 50 51 55 59 62 64 67
41 39 33 37 40 35 36 41 29 33 41 47 47 46 44 38 36 36 41 38 47 39 42 50 55 54 56 60 63 66 68 66
45 46 40 36 38 32 40 29 31 29 43 48 42 45 43 37 34 38 41 42 47 48 50 57 59 62 66 66 64 67 69 74
44 40 44 38 40 30 32 33 32 35 40 47 42 40 41 43 46 45 48 56 53 54 55 57 61 65 69 68 70 75 74 72
36 32 45 42 41 45 40 42 42 37 40 46 47 48 48 49 52 57 61 58 59 59 60 65 65 71 71 70 74 76 81 65
32 36 45 48 43 46 46 47 49 42 47 49 52 51 53 57 57 58 59 62 62 64 66 64 66 70 75 79 83 82 71 66
17 37 42 49 49 47 47 49 50 51 53 53 55 57 60 60 58 58 60 62 63 64 69 69 72 73 79 83 70 65 65 69
9 27 45 49 62 52 52 51 51 53 57 56 58 58 58 60 61 61 64 64 65 68 72 77 79 75 68 67 66 67 68 66

GFSFLT2_250_spd_102.txt.gz
Wind_Speed
33 45 50 47 42 39 37 37 41 38 25 30 22 21 41 34 29 28 28 26 23 21 24 34 39 38 33 32 36 34 33 35
43 46 41 44 41 43 43 49 53 40 24 24 24 13 22 36 42 32 32 22 31 35 32 45 45 43 32 30 31 28 28 29
30 53 36 37 36 39 44 49 54 28 26 24 20 15 15 24 30 35 39 35 43 44 41 42 43 43 43 27 26 21 19 20
23 50 33 38 36 35 47 44 54 62 34 23 22 22 21 24 26 38 47 43 43 42 40 41 42 37 36 29 23 25 27 23
21 36 37 33 35 41 48 39 49 54 43 28 27 28 22 23 27 35 51 45 43 35 34 35 34 33 32 29 24 28 25 24
17 24 41 35 36 49 54 40 49 56 36 32 34 30 22 26 37 38 50 47 45 33 35 32 31 33 30 28 29 34 31 28
14 31 40 44 47 57 48 52 40 43 39 34 39 33 25 31 34 33 32 35 41 32 32 28 31 33 32 29 29 34 33 30
15 35 45 56 57 57 51 54 52 51 39 46 43 42 33 36 32 36 35 40 31 29 27 27 27 30 30 32 34 36 37 32
18 34 52 62 57 55 52 56 48 48 51 56 42 37 32 39 37 36 36 34 32 29 29 29 30 30 29 31 29 27 32 26
23 32 52 64 62 62 61 59 54 58 53 58 57 51 38 38 42 39 36 37 36 32 32 25 20 27 23 21 24 34 31 33
29 22 45 66 66 66 62 64 60 63 59 51 48 51 48 48 46 42 39 40 37 35 31 29 27 26 28 31 29 32 37 39
34 33 27 64 72 67 66 61 67 63 64 66 51 48 51 51 48 43 46 40 34 28 29 34 30 29 30 36 37 36 39 45
35 42 31 29 66 68 66 65 66 65 64 63 60 53 51 53 48 42 41 44 37 34 33 35 36 34 35 36 46 50 52 47
34 43 38 33 32 50 65 61 59 52 53 66 62 63 55 52 46 43 37 41 42 38 41 41 42 39 43 43 49 51 51 53
20 42 41 41 30 41 42 40 43 39 40 38 42 58 59 54 47 46 40 37 36 40 42 45 47 45 42 49 49 53 54 59
16 38 45 47 38 44 44 42 39 40 37 39 42 43 51 50 44 42 41 38 38 39 41 49 52 52 53 54 57 60 63 64
13 32 49 50 47 40 48 40 35 46 37 36 46 47 47 48 47 46 42 41 38 43 52 59 59 58 59 59 62 67 65 71
13 20 48 48 50 45 46 45 43 43 45 41 39 49 50 47 49 46 44 47 48 55 61 63 62 66 66 66 67 68 71 72
14 14 40 46 54 52 47 46 42 45 47 45 45 49 52 51 52 49 51 55 59 62 66 66 67 67 70 71 70 75 78 78
16 14 23 46 53 54 51 49 49 51 47 50 45 47 53 56 54 56 58 60 62 64 66 68 69 69 70 74 77 81 83 83

GFSFLT2_250_spd_105.txt.gz
Wind_Speed
41 29 25 40 46 53 51 43 30 22 13 13 23 22 21 19 28 28 18 19 19 24 24 20 21 22 21 23 27 25 29 32
39 29 43 48 58 62 55 43 33 28 29 14 26 23 17 15 26 31 26 24 18 29 32 26 32 28 31 28 28 27 27 34
36 28 52 55 54 54 52 39 34 38 33 31 41 23 21 7 12 28 30 28 25 32 24 14 16 26 29 38 43 29 33 32
33 28 54 58 60 59 51 39 39 48 43 31 37 23 20 9 12 24 30 27 34 22 29 36 35 32 36 34 32 33 34 32
32 27 22 61 51 50 45 45 51 51 45 46 39 24 30 14 14 15 23 31 33 36 38 38 37 26 30 44 35 37 28 25
27 23 20 31 63 40 33 34 53 54 47 47 43 29 28 16 7 15 20 27 39 39 35 37 37 27 34 33 39 33 28 32
26 20 21 23 30 44 23 22 42 40 47 40 39 34 30 24 16 18 23 25 41 40 39 34 31 29 29 31 29 30 28 34
28 19 26 23 26 36 30 37 40 44 56 40 33 39 32 29 22 20 29 26 34 42 45 41 32 32 30 27 30 29 29 41
23 19 27 27 31 32 43 38 35 42 47 43 46 41 34 32 26 26 30 31 31 42 47 45 39 32 28 31 31 32 32 38
24 22 32 34 37 40 50 43 44 50 48 41 41 48 42 34 30 23 31 34 32 37 40 42 34 28 30 28 29 33 31 36
24 27 35 38 41 48 56 51 50 56 60 51 49 52 46 36 27 27 26 33 33 37 36 40 35 28 23 33 32 34 37 30
22 31 32 39 40 53 62 59 56 53 53 61 54 53 47 41 42 41 38 35 37 37 41 42 37 33 30 28 29 30 32 35
27 26 31 38 35 54 62 63 59 57 50 63 58 51 49 48 49 40 37 40 43 46 43 42 38 33 33 34 34 36 40 38
25 24 38 37 39 44 62 65 61 60 58 57 58 60 52 43 41 41 42 41 43 47 43 42 35 35 36 39 37 43 39 42
23 25 30 42 38 38 50 69 68 66 66 65 61 58 55 56 49 47 46 42 49 46 47 49 43 42 44 47 48 45 44 45
27 23 26 46 42 41 46 59 66 72 66 60 60 61 59 58 55 56 58 53 53 47 44 46 47 46 50 53 51 51 46 44
30 23 24 37 51 43 39 39 63 71 72 66 63 68 62 58 58 55 60 59 57 52 48 47 48 52 55 57 54 48 50 52
27 22 22 26 47 50 43 38 38 54 61 69 55 54 58 53 46 51 59 56 60 60 53 52 54 56 57 61 57 55 53 58
24 21 20 24 39 47 44 47 41 40 44 50 54 52 44 44 42 40 50 54 59 60 56 52 58 60 64 64 62 64 65 67
20 20 20 20 28 47 49 52 48 43 45 48 47 55 46 46 47 50 53 55 57 60 59 60 62 64 66 66 68 70 72 71

GFSFLT2_250_spd_108.txt.gz
Wind_Speed
35 34 30 33 34 28 45 47 43 33 29 28 21 12 3 11 12 16 26 19 16 17 15 21 20 22 27 24 23 24 34 33
36 34 32 29 37 47 56 54 43 33 32 28 19 14 6 7 5 18 11 16 19 15 17 21 22 26 14 16 25 30 33 30
39 37 30 32 30 60 60 57 45 35 37 32 33 25 11 11 7 7 12 22 16 18 14 21 34 26 25 31 28 25 26 31
37 34 27 30 50 59 62 58 42 35 40 33 26 25 18 11 11 13 15 12 18 19 17 23 28 27 21 23 25 23 34 35
38 39 31 28 41 64 65 64 46 36 37 36 34 31 29 13 11 12 14 13 15 19 25 31 29 23 23 30 22 28 30 29
37 41 36 27 34 71 69 56 48 34 33 36 35 34 25 16 13 9 11 15 13 19 33 30 31 35 31 27 34 32 33 35
32 36 36 27 24 61 62 61 58 48 30 40 35 41 26 23 21 7 7 13 18 24 28 30 38 32 34 31 31 32 34 38
33 33 34 27 28 34 66 63 60 59 42 44 47 41 35 24 27 18 15 14 16 20 32 35 31 31 31 30 34 34 32 25
30 32 32 29 23 22 34 61 37 38 43 46 50 58 40 29 29 25 22 20 20 19 29 39 33 37 39 36 30 28 25 28
29 28 29 25 19 24 25 35 28 27 30 50 47 47 37 41 34 29 24 22 24 20 25 29 42 41 41 35 31 26 27 25
26 30 27 28 21 30 30 29 36 23 29 47 42 43 44 43 41 33 20 22 20 21 21 24 30 35 40 34 30 28 25 25
26 27 29 28 24 33 34 38 38 37 42 47 47 43 48 44 40 31 25 19 21 24 26 28 28 32 36 33 31 31 30 32
26 29 29 28 25 33 41 43 46 44 49 50 52 55 49 47 39 32 34 33 29 33 32 32 33 35 36 35 34 31 36 35
25 29 26 26 25 32 47 52 51 52 57 51 56 57 54 46 42 40 37 39 40 37 34 34 35 41 42 42 38 35 35 37
23 28 24 28 27 33 42 54 58 55 61 58 56 59 57 52 47 41 41 40 40 41 37 34 38 44 41 45 44 43 40 42
24 26 27 28 28 27 42 49 57 63 60 64 62 60 54 52 52 49 49 45 48 45 43 40 38 42 45 50 51 48 48 52
23 22 27 28 25 27 36 45 53 57 69 66 61 58 53 57 60 56 55 50 49 51 51 43 43 47 50 54 56 57 61 62
23 24 24 26 22 27 28 46 43 50 54 62 62 62 65 62 62 59 55 57 55 55 50 48 48 50 53 54 59 58 60 60
20 22 23 25 23 22 24 41 47 42 41 44 49 58 63 65 65 61 55 54 51 52 53 55 54 55 60 63 61 63 67 68
23 22 18 21 21 19 23 30 46 43 39 34 41 48 50 52 55 56 51 48 45 45 47 51 55 58 60 66 66 69 68 68

GFSFLT2_250_spd_111.txt.gz
Wind_Speed
38 37 37 35 34 31 28 26 26 32 34 40 40 27 17 17 9 11 17 29 30 27 20 24 26 22 28 30 31 31 33 28
37 36 37 34 27 30 30 25 42 33 41 44 41 35 30 19 13 11 17 21 23 19 19 16 17 20 23 29 31 26 30 31
37 33 37 35 31 32 30 44 47 38 41 43 32 30 28 22 19 14 17 16 19 13 13 13 18 23 23 24 25 11 8 21
35 34 35 32 29 28 31 57 52 45 40 40 34 29 27 21 17 19 17 18 11 15 13 13 18 23 31 32 21 21 27 32
34 33 36 30 23 25 27 58 59 45 42 42 35 27 25 22 21 16 14 8 7 14 13 11 17 22 32 24 22 21 24 32
31 34 34 29 24 22 25 61 61 56 39 40 36 30 27 23 22 15 14 7 9 13 13 15 22 28 31 25 26 28 27 35
32 33 32 29 30 20 25 62 67 55 38 39 39 34 33 24 17 15 12 5 6 12 14 13 14 26 35 23 30 28 24 26
35 33 31 28 29 21 18 55 69 60 36 36 37 37 32 29 24 15 8 5 4 8 13 19 16 26 28 31 32 30 27 24
35 31 31 26 25 24 19 33 61 70 59 41 30 29 33 31 26 21 14 9 6 8 12 20 14 25 28 40 36 30 28 27
37 32 29 26 21 18 22 28 59 72 69 48 40 32 32 36 29 31 20 17 15 10 11 19 17 26 28 31 33 34 28 32
37 33 27 24 20 19 21 26 30 62 67 62 62 47 49 49 48 36 26 22 19 15 14 14 15 19 20 23 34 39 38 30
39 32 26 22 22 18 17 25 24 43 54 63 45 46 50 54 53 46 34 27 20 20 18 19 20 22 22 19 25 31 34 33
36 29 24 21 21 18 17 28 28 29 31 35 29 38 45 48 59 44 39 35 28 21 23 21 24 26 24 25 26 29 28 34
32 25 21 20 19 20 15 32 33 36 33 33 29 35 40 46 47 47 46 40 32 28 28 28 29 28 32 33 32 33 34 35
29 22 19 19 21 19 16 30 40 38 40 38 43 44 44 45 51 51 45 39 38 32 31 34 29 29 32 35 40 39 37 41
28 23 20 22 24 22 17 24 45 45 45 48 49 53 56 53 52 51 47 39 39 36 35 32 32 39 37 41 41 45 42 44
27 23 19 20 23 23 19 18 44 54 52 53 54 52 59 57 55 57 46 42 43 41 41 46 44 46 45 45 43 50 49 48
27 22 19 20 23 24 21 20 29 55 59 60 59 58 57 56 57 55 54 50 48 50 49 48 48 52 51 44 46 51 52 55
30 24 17 19 21 22 21 21 20 48 62 61 64 64 62 56 54 55 54 50 50 50 51 53 55 56 51 55 51 50 53 60
32 26 19 17 19 22 18 20 20 22 58 60 63 62 64 63 62 58 52 52 54 54 57 55 56 51 55 56 55 57 58 58

GFSFLT2_250_spd_114.txt.gz
Wind_Speed
40 45 46 40 36 36 34 34 28 32 30 34 38 30 34 37 37 29 24 29 33 41 40 46 44 39 37 36 36 37 41 41
38 42 42 41 38 38 32 31 31 29 30 38 41 37 36 37 36 23 13 14 16 23 25 28 25 27 29 33 34 37 37 37
43 41 42 41 38 37 30 26 29 34 32 40 39 41 42 37 38 22 18 16 16 16 14 17 18 21 25 27 28 27 24 27
41 41 41 40 35 34 30 26 29 27 32 36 43 41 39 31 28 24 23 20 19 19 17 12 18 16 17 22 23 24 20 21
42 40 41 38 32 29 29 27 29 22 28 38 40 38 37 28 27 29 25 19 20 20 13 11 9 13 14 19 23 28 22 25
46 44 40 35 31 28 26 25 25 25 27 36 42 39 30 31 29 22 23 22 16 12 6 7 4 9 12 22 23 31 25 13
46 48 41 35 31 27 26 23 25 22 25 33 47 42 25 27 25 24 22 18 15 11 6 5 6 6 11 23 30 23 26 23
46 48 42 34 30 28 26 24 25 20 20 42 41 42 35 28 29 26 22 18 15 13 6 3 10 8 12 17 25 28 21 26
46 45 42 31 28 27 23 23 21 20 22 38 37 42 43 36 31 25 22 17 16 11 6 2 7 12 13 11 25 27 22 26
45 43 42 33 27 25 22 21 23 23 32 47 41 34 40 40 34 33 24 19 19 12 9 3 1 4 8 14 15 22 27 28
44 41 42 33 27 24 23 22 20 28 39 45 47 41 39 35 36 34 31 25 20 15 14 12 8 1 6 10 15 16 19 25
41 41 41 34 26 25 21 17 18 30 34 46 54 45 36 35 27 36 35 28 22 19 18 14 13 8 8 8 11 12 15 19
38 41 38 34 26 24 19 13 17 27 25 37 56 66 52 46 40 34 45 42 31 22 19 17 17 14 16 15 14 12 12 14
39 40 39 32 26 21 18 13 16 25 25 27 35 67 56 57 54 50 48 45 44 43 29 23 20 20 24 20 18 19 16 17
43 41 38 30 25 22 17 16 17 27 28 27 27 48 50 45 52 50 52 47 45 41 34 30 25 24 29 26 23 28 27 28
44 40 38 28 25 23 19 16 15 33 31 33 32 37 39 44 51 53 50 42 43 42 39 35 34 28 23 27 30 32 32 32
44 39 38 28 25 21 18 16 17 34 35 37 39 38 47 53 46 41 42 40 42 45 44 36 36 29 31 35 40 41 39 41
46 41 37 29 24 22 19 19 16 24 43 43 41 45 48 52 50 50 45 46 42 44 43 41 43 40 38 44 44 43 46 50
48 42 38 29 23 24 19 21 15 20 42 49 51 49 52 57 55 54 52 51 52 50 48 46 45 45 49 48 49 49 50 52
46 42 40 28 23 24 20 21 14 21 21 54 56 58 54 59 60 56 54 52 51 53 55 51 51 51 50 49 53 52 52 57

GFSFLT2_250_spd_117.txt.gz
Wind_Speed
31 34 40 38 39 36 27 28 34 35 37 32 31 38 47 48 48 40 34 36 35 39 39 44 49 45 45 48 46 47 47 48
39 37 40 41 40 37 29 28 34 34 37 36 32 40 56 53 52 45 47 38 40 35 36 36 38 42 42 40 38 38 42 43
45 40 42 43 43 39 30 25 33 28 33 30 31 39 48 55 55 53 40 38 35 26 25 24 28 32 30 30 33 34 35 36
48 45 44 44 42 39 31 26 27 27 28 27 27 38 49 50 43 41 33 33 20 17 15 19 21 19 21 28 33 30 31 33
49 51 46 44 40 40 29 26 27 23 26 21 26 34 39 50 37 36 32 27 27 19 14 15 14 16 20 20 17 21 23 19
52 52 43 46 40 40 31 24 27 20 23 22 28 31 34 33 35 35 38 25 23 17 16 13 14 14 13 16 15 18 23 24
55 52 47 45 41 36 32 25 25 21 23 22 28 31 30 35 35 32 32 31 26 20 17 13 9 9 9 11 16 23 23 24
56 49 48 43 39 35 32 27 24 21 22 23 33 32 35 43 42 35 31 30 26 25 17 12 8 9 8 6 13 15 23 19
58 52 47 42 38 33 31 27 22 20 20 25 31 34 42 36 36 31 31 30 26 23 20 14 10 9 5 7 5 15 17 18
55 53 46 41 36 31 31 25 21 20 23 24 32 34 49 40 33 33 30 29 30 25 18 13 11 11 5 5 8 14 16 21
58 55 43 40 34 31 32 24 20 21 25 25 32 39 52 45 40 33 30 30 28 23 22 18 11 12 9 4 11 12 15 17
60 52 41 39 33 32 33 26 20 22 26 31 32 42 53 51 41 36 35 32 28 26 22 17 14 13 10 6 8 6 7 9
56 48 40 38 34 34 33 25 19 21 25 31 27 43 47 47 50 48 36 39 34 31 27 22 17 19 12 9 8 8 7 7
57 43 37 35 35 36 32 25 19 21 24 31 31 45 47 49 47 43 35 43 38 36 27 22 24 20 19 15 15 14 14 7
57 36 35 34 37 37 30 26 18 22 25 31 26 48 51 44 48 42 35 41 42 42 38 34 33 26 24 22 21 23 20 16
49 32 35 36 39 37 31 25 22 22 30 32 28 39 49 54 50 48 44 48 40 44 44 41 37 32 32 28 26 21 21 28
41 32 38 41 42 37 34 26 21 22 27 36 31 33 40 50 59 53 54 48 47 41 44 45 40 35 35 34 31 26 27 29
34 34 41 43 42 37 35 25 22 19 27 36 34 35 36 50 56 51 53 52 52 46 44 38 36 37 37 33 36 33 31 36
30 36 45 44 39 38 34 25 21 19 26 33 41 39 39 48 48 54 52 54 50 51 44 41 39 40 41 38 42 40 40 44
30 43 47 45 39 36 33 27 22 19 24 33 44 45 42 47 54 60 63 53 51 50 48 48 45 43 43 43 45 44 47 48

GFSFLT2_250_spd_120.txt.gz
Wind_Speed
42 38 35 35 38 40 42 40 38 34 31 31 31 26 33 47 47 47 45 51 56 52 54 51 46 46 50 48 50 51 51 49
45 41 38 35 34 38 40 44 38 36 32 30 32 28 36 51 49 52 54 56 58 52 47 48 43 41 42 45 47 49 45 44
46 43 42 40 37 38 42 41 39 36 32 30 31 30 34 47 54 56 56 59 60 54 49 48 46 40 35 40 44 40 36 37
47 47 44 41 41 37 43 39 37 34 34 30 31 29 33 42 48 59 55 57 56 53 44 40 32 32 33 38 38 33 33 37
53 51 48 41 42 39 42 38 34 31 34 30 28 29 28 32 44 50 57 54 53 50 36 25 22 22 24 28 27 27 29 30
53 49 46 39 43 40 42 36 34 30 31 27 26 26 28 34 34 50 49 45 35 32 28 20 15 16 19 23 25 19 19 18
54 53 54 42 44 42 39 33 33 31 32 26 28 25 31 34 28 31 48 40 31 29 23 18 16 17 14 21 23 17 16 18
57 58 58 48 45 45 42 30 32 32 31 29 29 29 30 33 27 29 35 39 38 31 23 19 15 15 15 16 17 19 26 23
61 61 58 45 49 46 42 30 30 34 33 29 29 31 32 33 30 36 37 39 39 34 28 22 18 16 15 14 15 12 16 19
63 64 61 47 51 44 41 30 29 34 33 29 28 33 36 34 36 40 43 38 38 32 30 24 20 16 13 12 11 11 17 16
67 62 59 50 52 47 39 30 30 34 34 27 28 34 34 33 42 44 41 38 35 34 31 25 20 20 13 10 9 13 13 18
67 60 61 53 52 46 35 29 32 34 30 26 29 33 30 37 44 44 39 37 34 34 33 25 23 20 16 12 9 14 20 21
66 61 57 51 51 44 31 28 34 34 30 28 29 36 31 44 49 45 39 35 35 40 35 26 27 24 19 18 15 13 12 10
67 59 56 53 49 40 30 29 35 34 31 28 28 30 31 47 52 47 40 38 39 39 32 29 27 27 23 16 18 16 15 16
65 64 55 52 48 39 32 33 37 35 29 30 28 28 34 48 55 49 46 40 42 39 35 32 32 28 25 23 23 20 14 16
60 59 54 56 47 38 33 36 39 35 29 31 25 31 35 45 52 57 48 46 44 42 43 38 37 34 34 29 27 24 21 22
56 57 53 53 46 36 34 37 39 34 29 29 23 33 34 39 56 56 56 57 48 43 45 45 41 38 36 34 34 34 29 24
54 54 50 51 42 35 37 38 38 32 32 30 24 34 32 34 56 58 53 52 45 42 42 47 46 44 40 40 39 40 36 36
53 53 47 50 39 35 39 41 37 33 31 29 27 33 35 35 49 53 54 55 51 52 52 52 49 50 44 40 37 37 36 33
54 51 48 48 38 37 42 44 38 36 32 30 33 29 39 36 37 56 57 56 57 56 52 53 50 48 43 39 39 39 39 38